Calls for Service

Disclaimer: This information is not intended to be used as official crime data. This program does not provide information about all crimes, and excludes specific incidents such as sexual assaults and child abuse. The City of Conway Police Department makes every effort to produce and publish current and accurate information. No warranties, expressed or implied, are provided for the data herein, its use, or its interpretation. The services provided are for informational purposes only and should not be relied on for any type of legal action.

Loading calls...
Showing calls from previous 10 days
Call Number Case Number Address Call Time Incident Type
17-0505407 550 SALEM RD May 29 2017 11:19:57:820PM ALARM
17-0505405 6 CEDAR OAKS DR May 29 2017 11:02:09:587PM SUSPICIOUS PERSON
17-0505404 1019 SALEM RD May 29 2017 11:00:49:390PM PROPERTY DAMAGE
17-0505399 2905 PRINCE ST May 29 2017 10:34:28:163PM ALARM
17-0505398 4101 TYLER ST May 29 2017 10:29:20:017PM INTOXICATED DRIVER
17-0505397 860 S SALEM RD May 29 2017 10:20:27:450PM DOMESTIC DISTURBANCE
17-0505396 17-06371 3155 PEBBLE BEACH DR May 29 2017 10:19:49:667PM DOMESTIC DISTURBANCE
17-0505393 2220 NATURE TRL May 29 2017 09:56:12:400PM DOMESTIC DISTURBANCE
17-0505392 250 S ASH ST May 29 2017 09:51:15:350PM CHECK ON THE WELFARE
17-0505387 335 S MITCHELL ST May 29 2017 09:25:17:523PM SHOTS FIRED
17-0505385 May 29 2017 09:20:26:943PM ATTEMPT TO CONTACT
17-0505384 17-06370 3035 PEBBLE BEACH DR May 29 2017 08:58:10:470PM ARMED SUBJECT
17-0505383 124 I40WB May 29 2017 08:29:40:870PM DOMESTIC DISTURBANCE
17-0505382 3900 DAVE WARD DR May 29 2017 08:27:45:237PM FOUND PROPERTY
17-0505381 3040 DONNELL RIDGE RD May 29 2017 08:25:14:773PM AGENCY ASSIST
17-0505380 900 SPRUCE ST May 29 2017 08:23:38:043PM LOUD NOISE-MUSIC
17-0505379 17-06369 5015 ABBEY GAIL DR May 29 2017 08:14:03:783PM ACCIDENT - PRIVATE PROPERTY
17-0505378 2200 WILMINGTON DR May 29 2017 08:11:01:767PM BARKING DOG COMPLAINT
17-0505377 17-06368 2270 MEADOWLAKE RD May 29 2017 08:09:13:947PM DOMESTIC DISTURBANCE
17-0505375 1201 OAK ST May 29 2017 07:20:51:093PM STALLED VEHICLE
17-0505374 1620 MIDDLE RD May 29 2017 07:12:25:687PM DISORDERLY CONDUCT
17-0505373 17-06367 655 ELSINGER BLVD May 29 2017 07:10:10:967PM FRAUD
17-0505372 1444 DAVE WARD DR May 29 2017 07:05:38:537PM SUSPICIOUS PERSON
17-0505371 1710 S SALEM RD May 29 2017 07:02:46:440PM INTOXICATED PERSON
17-0505369 1835 TYLER ST May 29 2017 06:34:08:490PM TRESPASSING
17-0505368 400 S DONAGHEY AV May 29 2017 06:26:05:897PM AGENCY ASSIST
17-0505366 1013 FAULKNER ST May 29 2017 06:21:27:690PM LOUD NOISE-MUSIC
17-0505365 101 SIEBENMORGEN RD May 29 2017 06:09:29:243PM CHECK ON THE WELFARE
17-0505364 510 SOUTH GERMAN LN May 29 2017 05:17:44:867PM ROAD RAGE
17-0505362 1815 TYLER ST May 29 2017 05:00:07:027PM HARASSMENT
17-0505361 1090 SKYLINE DR May 29 2017 04:51:04:280PM ATTEMPT TO CONTACT
17-0505360 1620 MIDDLE RD May 29 2017 04:33:40:630PM DISORDERLY CONDUCT
17-0505356 1090 SKYLINE DR May 29 2017 03:51:54:083PM ATTEMPT TO CONTACT
17-0505355 17-06364 3900 DAVE WARD DR May 29 2017 03:48:30:400PM LOST PROPERTY
17-0505354 2302 COLLEGE AV May 29 2017 03:45:08:437PM PARKING VIOLATION
17-0505353 1444 DAVE WARD DR May 29 2017 03:44:08:303PM CHECK ON THE WELFARE
17-0505352 475 ROBINS ST May 29 2017 03:41:54:893PM CHECKING VEHICLE
17-0505351 1815 TYLER ST May 29 2017 03:41:16:097PM LOUD NOISE-MUSIC
17-0505349 17-06363 350 E OAK ST May 29 2017 03:24:30:010PM THEFT OF PROPERTY
17-0505348 17-06366 1090 SKYLINE DR May 29 2017 03:11:19:310PM DISTURBANCE
17-0505347 17-06362 20 KINLEY DR May 29 2017 03:03:04:557PM BREAKING OR ENTERING
17-0505345 2021 ARKANSAS AV May 29 2017 02:25:37:650PM DOMESTIC DISTURBANCE
17-0505344 1135 MIMOSA DR May 29 2017 02:11:31:127PM ALARM
17-0505342 3040 DONNELL RIDGE RD May 29 2017 02:04:47:763PM AGENCY ASSIST
17-0505339 605 3RD ST May 29 2017 01:47:18:467PM DOMESTIC DISTURBANCE
17-0505338 2615 HARBELLE DR May 29 2017 01:25:12:300PM ALARM
17-0505337 2164 HARKRIDER ST May 29 2017 01:21:34:157PM CHECKING PERSON
17-0505336 1155 SKYLINE DR May 29 2017 01:13:00:447PM TRESPASSING
17-0505333 17-06360 1617 WESTLAKE DR May 29 2017 01:08:44:230PM ACCIDENT - PROPERTY DAMAGE
17-0505330 500 OAK ST May 29 2017 12:58:20:443PM SUPPLEMENT REPORT CALL
17-0505327 100 EAST GERMAN LN May 29 2017 12:52:28:663PM STALLED VEHICLE
17-0505326 2302 COLLEGE AV May 29 2017 12:51:27:940PM CHECK ON THE WELFARE
17-0505325 911 S HARKRIDER DR May 29 2017 12:46:49:533PM RECKLESS DRIVER
17-0505323 17-06359 150 E SIEBENMORGEN RD May 29 2017 12:37:16:080PM ACCIDENT - PRIVATE PROPERTY
17-0505320 1155 SKYLINE DR May 29 2017 12:24:54:043PM ROAD RAGE
17-0505315 6 PATTON CIR May 29 2017 12:03:30:770PM CIVIL STAND BY
17-0505314 17-06357 1600 WASHINGTON AV May 29 2017 11:50:18:693AM FOUND PROPERTY
17-0505313 1352 COLLEGE AV May 29 2017 11:46:13:250AM STALLED VEHICLE
17-0505312 1105 PRAIRIE ST May 29 2017 11:43:23:890AM CIVIL MATTER
17-0505311 902 DONAGHEY AV May 29 2017 11:37:21:503AM TRAFFIC LIGHT PROBLEM
17-0505310 1310 CROSSPOINT RD May 29 2017 11:37:21:110AM SUSPICIOUS VEHICLE
17-0505306 17-06356 2730 DAVE WARD DR May 29 2017 11:00:54:023AM DISTURBANCE
17-0505303 1701 HAIRSTON AV May 29 2017 10:45:06:530AM TERRORISTIC THREATENING
17-0505301 99 WESTIN DR May 29 2017 10:39:49:110AM CHECK ON THE WELFARE
17-0505300 17-06355 2570 HOLLY CV May 29 2017 10:37:42:393AM CRIMINAL MISCHIEF
17-0505296 2080 BROADVIEW AV May 29 2017 10:29:49:130AM CRIMINAL MISCHIEF
17-0505293 1610 PRINCE ST May 29 2017 10:21:22:890AM ALARM
17-0505292 1601 HOGAN LN May 29 2017 10:16:36:863AM THEFT OF PROPERTY
17-0505291 1191 STURGIS RD May 29 2017 10:10:11:240AM ALARM
17-0505289 1805 OTT MEMORIAL BLVD May 29 2017 09:58:54:160AM DOMESTIC DISTURBANCE
17-0505287 20 KINLEY DR May 29 2017 09:55:47:520AM SUSPICIOUS VEHICLE
17-0505286 1632 DONAGHEY AV May 29 2017 09:50:20:793AM DISTURBANCE
17-0505285 2270 MEADOWLAKE RD May 29 2017 09:48:41:690AM TRESPASSING
17-0505284 504 E OAK ST May 29 2017 09:48:03:860AM CHECKING PERSON
17-0505280 17-06354 500 OAK ST May 29 2017 09:21:02:270AM THEFT OF PROPERTY
17-0505263 250 S ASH ST May 29 2017 08:08:21:680AM SUPPLEMENT REPORT CALL
17-0505262 1105 SKYLINE DR May 29 2017 08:07:55:863AM ATTEMPT TO CONTACT
17-0505261 2845 PEBBLE BEACH DR May 29 2017 08:07:48:547AM SUPPLEMENT REPORT CALL
17-0505251 2125 HARKRIDER ST May 29 2017 07:06:59:873AM SUPPLEMENT REPORT CALL
17-0505250 2425 SANDERS ST May 29 2017 05:06:00:563AM CHECK ON THE WELFARE
17-0505249 17-06345 2125 HARKRIDER ST May 29 2017 04:51:49:630AM CRIMINAL MISCHIEF
17-0505248 1620 MIDDLE RD May 29 2017 04:42:13:260AM REPOSSESSION
17-0505247 17-06347 2270 MEADOWLAKE RD May 29 2017 04:38:04:887AM BATTERY REPORT
17-0505246 1601 HOGAN LN May 29 2017 03:46:36:547AM CIVIL STAND BY
17-0505245 1105 SKYLINE DR May 29 2017 03:13:19:613AM TRESPASSING
17-0505243 17-06344 250 S ASH ST May 29 2017 02:29:52:357AM SHOTS FIRED
17-0505241 602 S ELIZABETH ST May 29 2017 02:14:08:473AM LOUD NOISE-MUSIC
17-0505239 401 2ND ST May 29 2017 01:54:12:670AM CHECKING VEHICLE
17-0505237 4TH AV May 29 2017 01:44:37:507AM CHECKING VEHICLE
17-0505236 17-06343 1001 MCNUTT RD May 29 2017 01:37:56:977AM DOMESTIC DISTURBANCE
17-0505235 350 GRANDVIEW HEIGHTS DR May 29 2017 01:10:23:877AM CHECKING VEHICLE
17-0505234 875 SKYLINE DR May 29 2017 12:09:02:087AM CHECK ON THE WELFARE
17-0505233 875 SKYLINE DR May 29 2017 12:08:39:433AM OPEN DOOR/WINDOW/FENCE
17-0505231 2102 BRUCE ST May 28 2017 11:52:02:173PM RECKLESS DRIVER
17-0505229 1701 BRYANT CIR May 28 2017 11:35:15:973PM LOUD NOISE-MUSIC
17-0505227 17-06341 895 OAK ST May 28 2017 11:15:55:227PM CHECKING PERSON
17-0505224 17-06340 500 SOUTH GERMAN LN May 28 2017 11:05:11:370PM MISDEMEANOR WARRANT SERVICE
17-0505221 12 MANCHESTER DR May 28 2017 10:40:41:053PM ALARM
17-0505219 17-06342 130 HARKRIDER ST May 28 2017 10:32:07:607PM DISTURBANCE
17-0505217 835 S DONAGHEY AV May 28 2017 10:13:22:723PM VEHICLE TOW
17-0505216 2275 MOIX BLVD May 28 2017 10:07:54:217PM VEHICLE TOW
17-0505214 2550 PRINCE ST May 28 2017 10:02:38:593PM DISORDERLY CONDUCT
17-0505213 1 CADRON SETTLEMENT PARK RD May 28 2017 09:56:30:187PM CHECKING BUILDING
17-0505212 17-06339 1155 SKYLINE DR May 28 2017 09:50:52:617PM ACCIDENT - PROPERTY DAMAGE
17-0505209 550 E DAVE WARD DR May 28 2017 09:48:46:933PM RECKLESS DRIVER
17-0505208 1272 S AMITY RD May 28 2017 09:37:39:760PM SUSPICIOUS VEHICLE
17-0505207 2330 SANDERS ST May 28 2017 09:24:36:540PM SUSPICIOUS PERSON
17-0505206 235 FARRIS RD May 28 2017 09:14:49:337PM ALARM
17-0505205 1525 CLIFTON ST May 28 2017 09:00:52:460PM NO CONTACT ORDER VIOLATION
17-0505204 701 4TH ST May 28 2017 08:54:18:747PM CHECKING VEHICLE
17-0505203 475 ROBINS ST May 28 2017 08:51:42:837PM CHECK ON THE WELFARE
17-0505202 300 HARKRIDER ST May 28 2017 08:50:10:067PM CHECK ON THE WELFARE
17-0505201 475 ROBINS ST May 28 2017 08:37:15:723PM LOUD NOISE-MUSIC
17-0505199 17-06338 6 PATTON CIR May 28 2017 08:04:40:327PM DOMESTIC DISTURBANCE
17-0505198 3915 RUPERT DR May 28 2017 08:01:14:393PM 911 HANGUP CALL
17-0505197 475 ROBINS ST May 28 2017 07:58:54:520PM LOUD NOISE-MUSIC
17-0505196 17-06337 5315 LOVETTE CV May 28 2017 07:45:37:440PM DOMESTIC DISTURBANCE
17-0505195 799 S HOGAN LN May 28 2017 07:44:56:200PM CHECK ON THE WELFARE
17-0505192 200 S HARKRIDER DR May 28 2017 07:41:50:390PM CHECK ON THE WELFARE
17-0505189 1615 TYLER ST May 28 2017 07:17:42:177PM CITY ORDINANCE VIOLATION
17-0505187 605 1ST AV May 28 2017 07:08:11:413PM TRESPASSING
17-0505185 2915 DAVE WARD DR May 28 2017 06:27:57:880PM ALARM
17-0505184 17-06336 128 BARIDON ST May 28 2017 06:04:49:003PM BREAKING OR ENTERING
17-0505183 1105 PRAIRIE ST May 28 2017 06:03:49:083PM CIVIL MATTER
17-0505182 603 OAK ST May 28 2017 05:25:32:297PM SUPPLEMENT REPORT CALL
17-0505180 1318 CLAYTON ST May 28 2017 05:10:17:493PM 911 HANGUP CALL
17-0505178 2302 COLLEGE AV May 28 2017 04:52:21:807PM STALLED VEHICLE
17-0505176 450 ROBINS ST May 28 2017 04:13:41:810PM TRESPASSING
17-0505175 813 OAK ST May 28 2017 04:12:20:127PM ATTEMPT TO CONTACT
17-0505174 3700 DAVE WARD DR May 28 2017 03:24:51:873PM CHECKING VEHICLE
17-0505171 1595 SOUTH GERMAN LN May 28 2017 02:56:29:203PM TRAFFIC PROBLEM-CONTROL
17-0505169 1500 HARKRIDER ST May 28 2017 02:48:13:370PM ATTEMPT TO CONTACT
17-0505168 17-06332 236 CENTER ST May 28 2017 02:47:02:123PM BURGLARY
17-0505165 475 ROBINS ST May 28 2017 02:20:12:637PM DISTURBANCE
17-0505164 17-06331 1266 S AMITY RD May 28 2017 02:16:19:313PM PROPERTY DAMAGE
17-0505163 2925 PRINCE ST May 28 2017 02:16:18:333PM ALARM - BANK
17-0505162 601 ELSINGER BLVD May 28 2017 02:00:14:947PM CHECKING VEHICLE
17-0505161 17-06330 127 I40WB May 28 2017 01:59:06:457PM ACCIDENT - PROPERTY DAMAGE
17-0505160 1155 SKYLINE DR May 28 2017 01:16:21:067PM TRESPASSING
17-0505159 17-06329 4095 PRINCE ST May 28 2017 01:11:54:573PM HARASSING COMMUNICATIONS
17-0505157 17-06328 1400 HARKRIDER ST May 28 2017 01:07:44:623PM THEFT OF VEHICLE
17-0505155 17-06327 1030 SKYLINE DR May 28 2017 12:27:47:827PM GAS DRIVE OFF
17-0505153 17-06326 545 SKYLINE DR May 28 2017 12:16:02:740PM ACCIDENT - PROPERTY DAMAGE
17-0505151 1100 SKYLINE DR May 28 2017 12:05:38:970PM ALARM
17-0505150 1265 HARTON ST May 28 2017 11:41:42:183AM CHECK ON THE WELFARE
17-0505149 17-06325 1500 HARKRIDER ST May 28 2017 11:31:38:133AM ACCIDENT - PROPERTY DAMAGE
17-0505146 17-06324 1440 NORBERT CIR May 28 2017 11:03:54:650AM THEFT OF PROPERTY
17-0505145 17-06322 1900 HOGAN LN May 28 2017 11:01:27:160AM THEFT OF VEHICLE
17-0505142 17-06321 1120 EAST GERMAN LN May 28 2017 10:33:40:890AM DISTURBANCE
17-0505140 335 HOGAN LN May 28 2017 10:30:34:410AM ALARM
17-0505134 900 MILL ST May 28 2017 09:57:37:530AM CHECKING BUILDING
17-0505130 1300 EASTFIELD ST May 28 2017 08:41:31:173AM TRAFFIC PROBLEM-CONTROL
17-0505129 17-06320 1425 E OAK ST May 28 2017 08:29:19:660AM BURGLARY
17-0505128 5115 ROUND ROCK DR May 28 2017 07:58:03:760AM ALARM
17-0505126 201 SKYLINE DR May 28 2017 07:44:37:870AM CHECKING VEHICLE
17-0505124 2500 OLD MORRILTON HWY May 28 2017 06:49:50:327AM TRAFFIC LIGHT PROBLEM
17-0505122 17-06319 2010 RICH SMITH LN May 28 2017 06:30:41:693AM AGENCY ASSIST
17-0505120 4820 TRINITY CROSSING DR May 28 2017 04:40:31:433AM ALARM
17-0505119 17-06318 2100 ARKANSAS AV May 28 2017 04:27:13:637AM THEFT OF SERVICES
17-0505118 825 OAK ST May 28 2017 04:24:21:830AM CHECK ON THE WELFARE
17-0505117 1600 E OAK ST May 28 2017 04:12:47:910AM ALARM
17-0505116 1840 LEE AV May 28 2017 04:01:12:663AM BREAKING OR ENTERING
17-0505114 1400 WOODSIDE DR May 28 2017 03:49:07:317AM ALARM
17-0505113 150 SKYLINE DR May 28 2017 03:31:21:187AM MISSING PERSON
17-0505112 4615 THOMPSON ST May 28 2017 03:07:45:380AM TRAFFIC PROBLEM-CONTROL
17-0505110 1053 FRONT ST May 28 2017 02:41:30:887AM ALARM
17-0505108 1655 DAVE WARD DR May 28 2017 02:37:29:730AM SHOTS FIRED
17-0505107 2725 MUSCADINE LN May 28 2017 02:30:01:927AM ALARM
17-0505106 1318 STANLEY RUSS RD May 28 2017 02:03:51:600AM ALARM
17-0505105 475 ROBINS ST May 28 2017 01:51:54:633AM SHOTS FIRED
17-0505103 2125 DESHA DR May 28 2017 01:43:32:937AM ALARM
17-0505102 4015 GABRIAL DR May 28 2017 01:30:37:650AM DISTURBANCE
17-0505101 2500 DAVE WARD DR May 28 2017 01:29:52:377AM WEATHER RELATED CALLS-PROBLEMS
17-0505100 475 ROBINS ST May 28 2017 01:22:40:597AM SUSPICIOUS PERSON
17-0505099 810 MUSEUM RD May 28 2017 01:16:09:170AM LOITERING
17-0505098 925 JEANETTE DR May 28 2017 01:15:55:307AM ALARM
17-0505097 2619 W MARTIN ST May 28 2017 01:08:24:343AM SUSPICIOUS PERSON
17-0505096 550 SALEM RD May 28 2017 12:34:10:863AM ALARM
17-0505095 1105 E OAK ST May 28 2017 12:17:51:967AM INTOXICATED DRIVER
17-0505094 17-06317 1303 GUERNSEY DR May 28 2017 12:14:01:847AM BURGLARY
17-0505093 2620 PRINCE ST May 28 2017 12:10:11:283AM CHECKING VEHICLE
17-0505092 1775 OLD MORRILTON HWY May 27 2017 11:21:14:783PM DISTURBANCE
17-0505090 300 S DONAGHEY AV May 27 2017 11:16:21:397PM PARKING VIOLATION
17-0505087 1105 SKYLINE DR May 27 2017 11:07:17:913PM AGENCY ASSIST
17-0505085 3099 PHEASANT RD May 27 2017 10:49:10:480PM CITIZEN ASSIST
17-0505084 1405 S DONAGHEY AV May 27 2017 10:48:47:277PM DISTURBANCE
17-0505083 17-06314 3225 ATHENS DR May 27 2017 10:42:51:540PM ACCIDENT - PROPERTY DAMAGE
17-0505082 1315 HARRISON ST May 27 2017 10:32:03:607PM SUSPICIOUS VEHICLE
17-0505081 2200 MEADOWLAKE RD May 27 2017 10:27:54:833PM LOUD NOISE-MUSIC
17-0505078 17-06312 1890 E OAK ST May 27 2017 10:21:51:850PM INDECENT EXPOSURE
17-0505077 1 CADRON SETTLEMENT PARK RD May 27 2017 10:11:41:427PM CHECKING PERSON
17-0505076 3020 PEBBLE BEACH DR May 27 2017 10:08:09:117PM SUSPICIOUS ACTIVITY
17-0505075 17-06310 1845 OLD MORRILTON HWY May 27 2017 09:58:23:723PM DISTURBANCE
17-0505074 1515 DAVE WARD DR May 27 2017 09:51:18:487PM CHECKING PERSON
17-0505071 2730 DAVE WARD DR May 27 2017 08:54:58:757PM ATTEMPT TO CONTACT
17-0505070 5250 LANTANA DR May 27 2017 08:48:19:883PM ALARM
17-0505068 20 KINLEY DR May 27 2017 08:30:49:613PM DISORDERLY CONDUCT
17-0505067 1601 HOGAN LN May 27 2017 08:14:54:997PM DISORDERLY CONDUCT
17-0505066 2125 STOUT ST May 27 2017 08:11:22:317PM INTOXICATED PERSON
17-0505064 201 SKYLINE DR May 27 2017 08:09:13:613PM INTOXICATED PERSON
17-0505063 37 FRANCES DR May 27 2017 08:03:12:660PM DOMESTIC DISTURBANCE
17-0505062 5268 PRINCE ST May 27 2017 07:50:59:123PM DOMESTIC DISTURBANCE
17-0505060 17-06309 2302 COLLEGE AV May 27 2017 07:41:00:850PM TERRORISTIC THREATENING
17-0505059 1001 MCNUTT RD May 27 2017 07:39:40:563PM DISTURBANCE
17-0505058 17-06308 1839 TYLER ST May 27 2017 07:16:14:120PM BURGLARY
17-0505056 1155 SKYLINE DR May 27 2017 06:57:15:100PM CHECK ON THE WELFARE
17-0505055 3430 IRBY DR May 27 2017 06:45:46:983PM VEHICLE TOW
17-0505054 129 I40WB May 27 2017 06:07:34:547PM ACCIDENT - PROPERTY DAMAGE
17-0505053 2925 PRINCE ST May 27 2017 06:05:02:540PM ALARM - BANK
17-0505051 17-06306 710 S AMITY RD May 27 2017 05:32:27:737PM THEFT OF VEHICLE
17-0505050 621 4TH AVE May 27 2017 05:04:00:807PM DISTURBANCE
17-0505049 17-06307 1810 SOUTHERN HILLS DR May 27 2017 05:02:39:730PM BREAKING OR ENTERING
17-0505047 1214 HOGAN LN May 27 2017 04:41:31:543PM ALARM
17-0505045 17-06304 2980 OLD MORRILTON HWY May 27 2017 04:11:07:810PM STALLED VEHICLE
17-0505044 17-06305 475 ROBINS ST May 27 2017 04:09:22:717PM DOMESTIC DISTURBANCE
17-0505043 1361 MCKAY AV May 27 2017 04:04:26:287PM CIVIL MATTER
17-0505042 525 SKYLINE DR May 27 2017 04:04:04:497PM ALARM - HOLD UP or PANIC
17-0505041 855 SALEM RD May 27 2017 03:54:11:500PM SHOPLIFTING
17-0505040 1600 WESTLAKE DR May 27 2017 03:50:58:360PM SUSPICIOUS ACTIVITY
17-0505037 17-06303 700 ELSINGER BLVD May 27 2017 03:14:19:007PM ACCIDENT - PRIVATE PROPERTY
17-0505036 17-06301 1260 S AMITY RD May 27 2017 03:09:58:817PM ACCIDENT - PRIVATE PROPERTY
17-0505035 2018 PRINCE ST May 27 2017 03:07:28:140PM ALARM
17-0505034 1303 WATKINS ST May 27 2017 02:55:24:083PM ALARM
17-0505033 201 LEE ANDREW LN May 27 2017 02:43:51:100PM AGENCY ASSIST
17-0505032 17-06302 1055 STEEL AV May 27 2017 02:38:04:087PM CHECK ON THE WELFARE
17-0505031 17-06297 2110 SUGAR CREEK DR May 27 2017 02:21:07:967PM ABANDONED VEHICLE
17-0505030 17-06299 813 OAK ST May 27 2017 02:15:21:100PM SHOPLIFTING
17-0505029 17-06300 311 CENTER ST May 27 2017 02:11:14:620PM ABANDONED VEHICLE
17-0505028 2207 LOOKOUT AV May 27 2017 01:58:07:400PM DOMESTIC DISTURBANCE
17-0505026 17-06298 1265 HARTON ST May 27 2017 01:37:39:057PM DOMESTIC DISTURBANCE
17-0505025 1309 MAIN ST May 27 2017 01:31:22:493PM ALARM - BANK
17-0505024 3340 PEBBLE BEACH DR May 27 2017 01:10:07:933PM HARASSING COMMUNICATIONS
17-0505023 18 WOODLAWN DR May 27 2017 12:58:56:643PM SUPPLEMENT REPORT CALL
17-0505022 201 SKYLINE DR May 27 2017 12:49:49:670PM CHECKING PERSON
17-0505020 55 KENSINGTON DR May 27 2017 12:26:09:063PM OPEN DOOR/WINDOW/FENCE
17-0505018 2125 DESHA DR May 27 2017 12:10:47:267PM ALARM
17-0505016 17-06296 835 2ND AV May 27 2017 12:02:51:440PM ACCIDENT - PROPERTY DAMAGE
17-0505014 17-06295 2150 HARKRIDER ST May 27 2017 11:28:13:030AM FRAUD
17-0505013 17-06294 228 LOCUST AV May 27 2017 11:16:56:260AM THEFT OF PROPERTY
17-0505012 1218 HAMILTON ST May 27 2017 11:13:34:193AM ATTEMPT TO CONTACT
17-0505010 620 ELSINGER BLVD May 27 2017 10:44:31:200AM SUPPLEMENT REPORT CALL
17-0505009 17-06292 1002 E OAK ST May 27 2017 10:26:42:843AM THEFT OF PROPERTY
17-0505008 1622 WESTLAKE DR May 27 2017 10:24:41:760AM BATTERY REPORT
17-0505007 1822 HOGAN LN May 27 2017 10:16:03:253AM DOMESTIC DISTURBANCE
17-0505006 17-06293 2080 BROADVIEW AV May 27 2017 10:11:55:160AM CRIMINAL MISCHIEF
17-0505004 640 S MITCHELL ST May 27 2017 09:50:43:503AM TRESPASSING
17-0505000 2225 PRINCE ST May 27 2017 09:40:35:963AM NO CONTACT ORDER VIOLATION
17-0504999 823 OAK ST May 27 2017 09:22:31:920AM STALLED VEHICLE
17-0504997 3155 CIMARRON DR May 27 2017 09:20:25:073AM ALARM
17-0504996 201 SKYLINE DR May 27 2017 09:17:40:553AM FELONY WARRANT SERVICE
17-0504994 17-06290 2350 SANDERS ST May 27 2017 08:22:56:700AM THEFT OF PROPERTY
17-0504991 17-06289 1901 E OAK ST May 27 2017 07:46:22:753AM ACCIDENT - PROPERTY DAMAGE
17-0504990 17-06288 350 E OAK ST May 27 2017 07:44:05:580AM FRAUD
17-0504987 817 PARKWAY ST May 27 2017 07:29:12:190AM ALARM
17-0504986 2820 PRINCE ST May 27 2017 07:08:37:007AM ALARM
17-0504982 2302 COLLEGE AV May 27 2017 05:31:41:370AM CHECK ON THE WELFARE
17-0504981 17-06287 603 OAK ST May 27 2017 04:18:06:060AM ALARM
17-0504980 17-06285 1500 HARKRIDER ST May 27 2017 03:34:57:427AM ACCIDENT - PROPERTY DAMAGE
17-0504979 1610 PRINCE ST May 27 2017 03:32:25:950AM ALARM
17-0504978 375 MONROE ST May 27 2017 03:23:23:997AM REPOSSESSION
17-0504977 1610 ANGELINE DR May 27 2017 03:13:33:073AM SUSPICIOUS VEHICLE
17-0504976 1840 LEE AV May 27 2017 03:11:43:303AM CRIMINAL MISCHIEF
17-0504975 17-06284 1905 OLD MORRILTON HWY May 27 2017 03:10:07:657AM TRESPASSING
17-0504974 801 LOCUST AV May 27 2017 02:57:41:460AM FRAUD
17-0504973 3100 IRBY DR May 27 2017 02:34:42:777AM BURGLARY
17-0504971 1020 FRONT ST May 27 2017 02:11:48:623AM LOST PROPERTY
17-0504970 2200 MEADOWLAKE RD May 27 2017 02:09:52:550AM SUSPICIOUS PERSON
17-0504968 202 DONAGHEY AV May 27 2017 02:04:37:310AM CHECK ON THE WELFARE
17-0504967 2420 BROADVIEW AV May 27 2017 02:02:45:950AM CHECKING VEHICLE
17-0504966 1402 CLIFTON ST May 27 2017 01:42:27:877AM CHECKING PERSON
17-0504965 17-06283 465 EAST GERMAN LN May 27 2017 01:33:40:667AM ACCIDENT - PROPERTY DAMAGE
17-0504963 1161 OLD MORRILTON HWY May 27 2017 12:20:11:330AM DISTURBANCE
17-0504962 17-06282 1475 HOGAN LN May 27 2017 12:11:58:847AM BREAKING OR ENTERING
17-0504961 3102 WILLOW RUN DR May 27 2017 12:10:31:117AM LOUD NOISE-MUSIC
17-0504960 545 SKYLINE DR May 27 2017 12:09:51:630AM TRESPASSING
17-0504958 2001 BLANEY HILL RD May 26 2017 11:38:47:257PM RECKLESS DRIVER
17-0504957 1611 E OAK ST May 26 2017 11:24:40:377PM LOUD NOISE-MUSIC
17-0504956 20 KINLEY DR May 26 2017 11:14:01:573PM CHECKING VEHICLE
17-0504955 256 OAK ST May 26 2017 10:49:48:400PM DISTURBANCE
17-0504954 3255 PRINCE ST May 26 2017 10:40:33:343PM CHECKING VEHICLE
17-0504953 3255 PRINCE ST May 26 2017 10:39:06:083PM CHECKING VEHICLE
17-0504950 4540 PRINCE ST May 26 2017 10:26:20:800PM STALLED VEHICLE
17-0504949 1263 LINCOLN ST May 26 2017 10:19:26:773PM DISTURBANCE
17-0504948 705 SALEM RD May 26 2017 10:16:56:527PM RECKLESS DRIVER
17-0504947 1 CADRON SETTLEMENT PARK RD May 26 2017 10:11:00:070PM CHECKING BUILDING
17-0504946 125 I40EB May 26 2017 10:07:25:120PM STALLED VEHICLE
17-0504945 1000 EAST GERMAN LN May 26 2017 09:58:42:837PM RECKLESS DRIVER
17-0504944 2925 PRINCE ST May 26 2017 09:55:06:953PM ALARM - BANK
17-0504941 3900 DAVE WARD DR May 26 2017 09:40:06:853PM RECKLESS DRIVER
17-0504940 1260 S AMITY RD May 26 2017 09:32:12:360PM SUSPICIOUS PERSON
17-0504939 100 BROOKSIDE DR May 26 2017 09:16:58:677PM HARASSING COMMUNICATIONS
17-0504938 2001 SALEM RD May 26 2017 09:15:19:190PM RECKLESS DRIVER
17-0504937 17-06281 702 PINE ST May 26 2017 09:13:53:403PM DISTURBANCE
17-0504935 605 1ST AV May 26 2017 08:52:43:400PM SUSPICIOUS PERSON
17-0504933 1303 EASTFIELD ST May 26 2017 08:42:35:047PM CHECK ON THE WELFARE
17-0504932 2107 DUNCAN ST May 26 2017 08:26:59:810PM DOMESTIC DISTURBANCE
17-0504929 6 FERNWOOD DR May 26 2017 08:06:49:357PM THEFT OF PROPERTY
17-0504926 17-06278 2625 DONAGHEY AV May 26 2017 07:34:10:233PM CRIMINAL MISCHIEF
17-0504925 299 MILL ST May 26 2017 07:12:27:213PM CHECKING VEHICLE
17-0504924 207 WILLOW ST May 26 2017 07:02:01:663PM DOMESTIC DISTURBANCE
17-0504922 17-06280 915 FAULKNER ST May 26 2017 06:54:46:053PM FRAUD
17-0504921 650 SKYLINE DR May 26 2017 06:45:14:880PM CHECKING PERSON
17-0504920 2925 PRINCE ST May 26 2017 06:30:28:883PM ALARM - BANK
17-0504919 860 S SALEM RD May 26 2017 06:12:23:423PM INTERFERENCE WITH CUSTODY
17-0504918 2415 PRINCE ST May 26 2017 06:06:55:277PM ALARM
17-0504917 17-06277 523 POLK ST May 26 2017 06:03:01:370PM CIVIL MATTER
17-0504916 17-06274 4470 THOMPSON ST May 26 2017 05:57:24:847PM BURGLARY
17-0504915 17-06275 2708 BRUCE ST May 26 2017 05:51:22:390PM DOMESTIC DISTURBANCE
17-0504914 1150 S AMITY RD May 26 2017 05:48:56:250PM TRESPASSING
17-0504913 1928 MARTIN ST May 26 2017 05:31:33:670PM SUSPICIOUS ACTIVITY
17-0504911 523 POLK ST May 26 2017 05:16:24:173PM DOMESTIC DISTURBANCE
17-0504909 17-06276 2010 RICH SMITH LN May 26 2017 05:12:11:560PM PROPERTY DAMAGE
17-0504907 255 TILK RD May 26 2017 05:06:52:100PM TERRORISTIC THREATENING
17-0504905 1001 MCNUTT RD May 26 2017 05:03:25:867PM DOMESTIC DISTURBANCE
17-0504904 1230 CLIFTON ST May 26 2017 04:52:10:447PM ACCIDENT - PRIVATE PROPERTY
17-0504902 175 S ASH ST May 26 2017 04:47:31:340PM UNKNOWN TROUBLE
17-0504901 375 MONROE ST May 26 2017 04:45:41:317PM LOUD NOISE-MUSIC
17-0504900 1955 KEATHLEY DR May 26 2017 04:39:47:240PM LOST-STOLEN LICENSE PLATE
17-0504899 1900 HOGAN LN May 26 2017 04:39:45:540PM CIVIL STAND BY
17-0504894 2360 QUATTLEBAUM CV May 26 2017 04:13:06:930PM SUPPLEMENT REPORT CALL
17-0504893 1430 CHAMPIONS DR May 26 2017 03:59:20:583PM ALARM
17-0504892 1600 COUNTRY CLUB RD May 26 2017 03:53:21:400PM CITIZEN ASSIST
17-0504891 1555 EXCHANGE AV May 26 2017 03:50:31:883PM DISTURBANCE
17-0504889 2051 HARKRIDER ST May 26 2017 03:43:01:127PM CHECK ON THE WELFARE
17-0504888 17-06270 2001 JEFFERSON AV May 26 2017 03:39:27:900PM ARMED SUBJECT
17-0504887 2880 BLANEY HILL RD May 26 2017 03:32:46:743PM BURGLARY
17-0504885 2005 ARKANSAS AV May 26 2017 03:26:51:303PM FRAUD
17-0504884 17-06269 512 5TH ST May 26 2017 03:22:39:570PM HARASSMENT
17-0504882 5135 LOST CANYON DR May 26 2017 03:13:54:013PM ALARM
17-0504880 17-06268 515 S MITCHELL ST May 26 2017 03:11:44:300PM HARASSING COMMUNICATIONS
17-0504876 17-06271 3034 DONNELL RIDGE RD May 26 2017 02:51:13:433PM HARASSING COMMUNICATIONS
17-0504875 1040 HOLIDAY DR May 26 2017 02:47:40:933PM ACCIDENT - PRIVATE PROPERTY
17-0504872 17-06267 150 E SIEBENMORGEN RD May 26 2017 02:42:14:053PM THEFT OF PROPERTY
17-0504869 17-06266 1710 S SALEM RD May 26 2017 02:17:16:157PM BREAKING OR ENTERING
17-0504868 1200 DAVE WARD DR May 26 2017 02:16:54:537PM RECKLESS DRIVER
17-0504863 2110 CHARLIE DAYER DR May 26 2017 01:59:58:307PM ATTEMPT TO CONTACT
17-0504862 2401 CHRISTINA LN May 26 2017 01:55:30:010PM CHECK ON THE WELFARE
17-0504861 2520 MORSE DR May 26 2017 01:53:50:867PM TRESPASSING
17-0504860 17-06265 650 ROBINS ST May 26 2017 01:51:09:437PM ACCIDENT - PROPERTY DAMAGE
17-0504857 17-06264 2099 JOHNSTON AV May 26 2017 01:32:28:770PM ACCIDENT - PROPERTY DAMAGE
17-0504856 17-06263 2895 DAVE WARD DR May 26 2017 01:23:43:383PM FRAUD
17-0504854 1120 EAST GERMAN LN May 26 2017 01:12:19:537PM STALLED VEHICLE
17-0504851 17-06261 620 ELSINGER BLVD May 26 2017 12:00:21:393PM SHOPLIFTING
17-0504849 2480 TYLER ST May 26 2017 11:50:37:977AM LOST PROPERTY
17-0504848 823 OAK ST May 26 2017 11:47:50:890AM NO CONTACT ORDER VIOLATION
17-0504846 17-06260 201 SKYLINE DR May 26 2017 11:27:01:697AM ACCIDENT - PRIVATE PROPERTY
17-0504837 1622 DONAGHEY AV May 26 2017 10:39:08:587AM CHECK ON THE WELFARE
17-0504833 810 PARKWAY ST May 26 2017 10:25:33:093AM MISDEMEANOR WARRANT SERVICE
17-0504831 5268 PRINCE ST May 26 2017 10:20:26:180AM AGENCY ASSIST
17-0504829 950 RIO GRANDE RD May 26 2017 10:13:23:067AM ATTEMPT TO CONTACT
17-0504828 1 CONWAY TOWNE CENTRE DR May 26 2017 10:13:07:200AM CHECKING PERSON
17-0504827 2599 WASHINGTON AV May 26 2017 10:12:18:807AM STALLED VEHICLE
17-0504821 17-06258 1505 STURGIS RD May 26 2017 09:55:54:887AM CRIMINAL MISCHIEF
17-0504820 475 ROBINS ST May 26 2017 09:48:14:017AM AGENCY ASSIST
17-0504816 1055 STEEL AV May 26 2017 09:19:41:773AM VEHICLE TOW
17-0504814 17-06256 680 MUSEUM RD May 26 2017 09:13:08:083AM SHOPLIFTING
17-0504811 1475 HOGAN LN May 26 2017 09:07:40:340AM ALARM
17-0504808 49 ROCKYTOP RD May 26 2017 09:03:03:737AM ATTEMPT TO CONTACT
17-0504807 350 E OAK ST May 26 2017 09:02:59:603AM TRESPASSING
17-0504806 705 MUSEUM RD May 26 2017 09:02:44:080AM TRESPASSING
17-0504798 17-06255 300 HARKRIDER ST May 26 2017 08:28:12:093AM HARASSING COMMUNICATIONS
17-0504797 1100 E DAVE WARD DR May 26 2017 08:22:08:237AM STALLED VEHICLE
17-0504794 2101 TYLER ST May 26 2017 08:06:12:097AM RECKLESS DRIVER
17-0504783 17-06253 1001 MCNUTT RD May 26 2017 07:39:17:060AM HARASSMENT
17-0504777 2280 SANDERS ST May 26 2017 06:38:16:410AM ALARM
17-0504775 25 NABCO DR May 26 2017 05:52:42:070AM ALARM - BANK
17-0504773 3350 PEBBLE BEACH DR May 26 2017 05:00:28:660AM AGENCY ASSIST
17-0504772 17-06251 101 OAK ST May 26 2017 04:40:24:313AM CHECKING PERSON
17-0504771 1155 SKYLINE DR May 26 2017 04:10:51:003AM CHECKING PERSON
17-0504770 17-06250 504 4TH ST May 26 2017 04:10:29:410AM SHOOTING
17-0504769 3661 GRESHAM DR May 26 2017 03:21:39:470AM SUSPICIOUS PERSON
17-0504767 17-06249 1318 FRONT ST May 26 2017 02:23:05:093AM CHECK ON THE WELFARE
17-0504766 300 HARKRIDER ST May 26 2017 02:20:51:873AM PURSUIT DRILL
17-0504765 2925 PRINCE ST May 26 2017 01:44:37:683AM ALARM - BANK
17-0504762 17-06248 2618 BRUCE ST May 26 2017 01:16:03:967AM BURGLARY
17-0504758 1890 E OAK ST May 26 2017 12:40:07:350AM STALLED VEHICLE
17-0504753 605 DAVE WARD DR May 25 2017 11:58:38:310PM ALARM
17-0504752 235 FARRIS RD May 25 2017 11:47:15:690PM ATTEMPT TO CONTACT
17-0504750 1825 E OAK ST May 25 2017 10:40:29:900PM ALARM
17-0504749 2750 GARDEN GROVE DR May 25 2017 10:36:04:277PM SUSPICIOUS VEHICLE
17-0504746 1405 E OAK ST May 25 2017 09:50:40:777PM ALARM
17-0504745 3670 JEANNA DR May 25 2017 09:49:40:897PM SUSPICIOUS PERSON
17-0504743 1405 S DONAGHEY AV May 25 2017 09:46:04:633PM SUPPLEMENT REPORT CALL
17-0504742 2100 MEADOWLAKE RD May 25 2017 09:42:32:610PM RECKLESS DRIVER
17-0504740 1155 SKYLINE DR May 25 2017 09:17:27:010PM SUSPICIOUS PERSON
17-0504739 335 S MITCHELL ST May 25 2017 09:15:56:240PM LOUD NOISE-MUSIC
17-0504737 350 E OAK ST May 25 2017 09:07:00:470PM DISTURBANCE
17-0504734 4095 PRINCE ST May 25 2017 09:00:07:583PM RECKLESS DRIVER
17-0504732 475 ROBINS ST May 25 2017 08:49:10:990PM ATTEMPT TO CONTACT
17-0504731 600 WESTHAVEN DR May 25 2017 08:39:19:467PM DOMESTIC DISTURBANCE
17-0504730 50 KENSINGTON DR May 25 2017 08:27:41:737PM ATTEMPT TO CONTACT
17-0504729 1420 PYRAMID DR May 25 2017 08:24:21:603PM ANIMAL BITE
17-0504728 17-06246 129 I40EB May 25 2017 08:19:13:113PM AGENCY ASSIST
17-0504727 2815 PATRICIA LN May 25 2017 08:15:12:280PM ATTEMPT TO CONTACT
17-0504725 512 5TH ST May 25 2017 07:51:30:753PM CIVIL MATTER
17-0504724 3900 DAVE WARD DR May 25 2017 07:37:06:067PM SUPPLEMENT REPORT CALL
17-0504723 17-06245 550 E DAVE WARD DR May 25 2017 07:36:35:637PM ACCIDENT - PEDESTRIAN
17-0504722 17-06243 814 E OAK ST May 25 2017 07:31:11:007PM ACCIDENT - PROPERTY DAMAGE
17-0504721 17-06244 1444 DAVE WARD DR May 25 2017 07:23:04:890PM ENDANGERING WELFARE OF MINOR
17-0504720 475 ROBINS ST May 25 2017 07:22:31:993PM SUPPLEMENT REPORT CALL
17-0504719 129 I40EB May 25 2017 07:21:21:220PM CHECK ON THE WELFARE
17-0504717 510 S MITCHELL ST May 25 2017 06:52:39:240PM CHECK ON THE WELFARE
17-0504715 17-06242 10 LOWER RIDGE RD May 25 2017 06:40:31:900PM ACCIDENT - PRIVATE PROPERTY
17-0504714 2300 MEADOWLAKE RD May 25 2017 06:39:51:073PM 911 HANGUP CALL
17-0504713 859 MILAM DR May 25 2017 06:26:39:473PM RECKLESS DRIVER
17-0504712 1600 WESTLAKE DR May 25 2017 06:24:41:037PM REPOSSESSION
17-0504711 17-06239 1501 HOGAN LN May 25 2017 06:23:36:230PM ACCIDENT - PROPERTY DAMAGE
17-0504710 24 May 25 2017 06:23:01:717PM ATTEMPT TO CONTACT
17-0504709 17-06241 3900 DAVE WARD DR May 25 2017 06:22:12:117PM ACCIDENT - PRIVATE PROPERTY
17-0504708 1410 STORIE DR May 25 2017 06:16:07:220PM REPOSSESSION
17-0504706 401 2ND ST May 25 2017 05:58:27:870PM DISTURBANCE
17-0504705 17-06238 1706 HARDY ST May 25 2017 05:55:24:210PM DOMESTIC DISTURBANCE
17-0504703 17-06240 2820 RAZORBACK DR May 25 2017 05:45:01:130PM THEFT OF PROPERTY
17-0504701 17-06237 475 ROBINS ST May 25 2017 05:36:45:007PM CHECK ON THE WELFARE
17-0504700 2 OAKDALE DR May 25 2017 05:32:37:610PM CIVIL MATTER
17-0504699 1105 SKYLINE DR May 25 2017 05:19:14:527PM ATTEMPT TO CONTACT
17-0504698 2210 WINDSOR PARK DR May 25 2017 05:17:33:693PM ATTEMPT TO CONTACT
17-0504697 3325 PEBBLE BEACH DR May 25 2017 05:05:03:557PM CHECK ON THE WELFARE
17-0504696 810 TURNER TRL May 25 2017 04:55:02:797PM CIVIL STAND BY
17-0504695 526 DAVIS ST May 25 2017 04:51:51:970PM THEFT OF PROPERTY
17-0504694 3245 LILLIAN CV May 25 2017 04:41:06:523PM FRAUD
17-0504693 17-06236 2360 QUATTLEBAUM CV May 25 2017 04:39:54:230PM THEFT OF PROPERTY
17-0504692 17-06234 1155 STEEL AV May 25 2017 04:28:40:520PM ACCIDENT - PROPERTY DAMAGE
17-0504690 May 25 2017 04:21:39:043PM FIRE-SQUAD CALLOUT
17-0504689 17-06235 1405 S DONAGHEY AV May 25 2017 04:13:55:647PM UNAUTHORIZED USE OF MOTOR VEHICLE
17-0504688 1309 MITCHELL ST May 25 2017 04:12:43:847PM ATTEMPT TO CONTACT
17-0504687 2500 DAVE WARD DR May 25 2017 04:05:49:280PM RECKLESS DRIVER
17-0504686 10 LOWER RIDGE RD May 25 2017 03:56:04:200PM FIGHT
17-0504684 17-06233 2125 HARKRIDER ST May 25 2017 03:43:04:327PM ATTEMPT TO CONTACT
17-0504683 823 OAK ST May 25 2017 03:41:07:970PM ATTEMPT TO CONTACT
17-0504681 2810 RAZORBACK DR May 25 2017 03:32:46:293PM ATTEMPT TO CONTACT
17-0504680 2008 CAPEWOOD DR May 25 2017 03:32:31:647PM ALARM
17-0504675 201 SKYLINE DR May 25 2017 02:49:39:133PM CHECKING PERSON
17-0504673 20 KINLEY DR May 25 2017 02:31:46:677PM CHECK ON THE WELFARE
17-0504671 22 ROSANNE DR May 25 2017 02:18:40:100PM ALARM
17-0504670 2840 DAVE WARD DR May 25 2017 02:09:05:840PM SUPPLEMENT REPORT CALL
17-0504669 2270 MEADOWLAKE RD May 25 2017 02:02:45:903PM ATTEMPT TO CONTACT
17-0504667 17-06230 855 SALEM RD May 25 2017 01:59:55:670PM ACCIDENT - PRIVATE PROPERTY
17-0504664 17-06227 2550 PRINCE ST May 25 2017 01:52:57:400PM CHECKING PERSON
17-0504662 1520 E DAVE WARD DR May 25 2017 01:46:34:650PM 911 HANGUP CALL
17-0504661 823 OAK ST May 25 2017 01:39:45:647PM TRAFFIC LIGHT PROBLEM
17-0504659 1090 SKYLINE DR May 25 2017 01:33:09:857PM CITIZEN ASSIST
17-0504658 500 ELSINGER BLVD May 25 2017 01:22:12:977PM SUPPLEMENT REPORT CALL
17-0504657 17-06259 3690 NUTTERS CHAPEL RD May 25 2017 01:20:07:200PM THEFT OF IDENTITY
17-0504655 1095 SKYLINE DR May 25 2017 01:14:32:670PM ATTEMPT TO CONTACT
17-0504654 17-06226 3900 DAVE WARD DR May 25 2017 01:14:30:883PM ACCIDENT - PRIVATE PROPERTY
17-0504652 17-06225 2455 WASHINGTON AV May 25 2017 01:09:54:143PM ACCIDENT - PRIVATE PROPERTY
17-0504651 17-06222 2415 WASHINGTON AV May 25 2017 01:05:29:033PM THEFT OF PROPERTY
17-0504647 2810 RAZORBACK DR May 25 2017 12:53:40:213PM THEFT OF PROPERTY
17-0504646 17-06223 1890 E OAK ST May 25 2017 12:49:55:337PM ACCIDENT - PRIVATE PROPERTY
17-0504645 17-06221 215 FARRIS RD May 25 2017 12:42:18:963PM FORGERY
17-0504641 475 ROBINS ST May 25 2017 12:32:39:057PM ATTEMPT TO CONTACT
17-0504638 2605 COLLEGE AV May 25 2017 12:20:07:243PM 911 HANGUP CALL
17-0504635 17-06220 2845 PEBBLE BEACH DR May 25 2017 11:55:44:007AM DOMESTIC DISTURBANCE
17-0504632 375 HARKRIDER ST May 25 2017 11:34:25:830AM CHECKING PERSON
17-0504631 375 HARKRIDER ST May 25 2017 11:32:07:890AM CHECKING PERSON
17-0504628 3900 DAVE WARD DR May 25 2017 11:23:16:303AM CHECK ON THE WELFARE
17-0504625 2415 WASHINGTON AV May 25 2017 11:16:28:990AM REPOSSESSION
17-0504624 4515 SAWGRASS CV May 25 2017 11:15:55:460AM ALARM
17-0504621 17-06219 245 OAK ST May 25 2017 11:03:19:363AM SHOPLIFTING
17-0504618 475 ROBINS ST May 25 2017 10:56:17:133AM ATTEMPT TO CONTACT
17-0504617 600 E DAVE WARD DR May 25 2017 10:52:32:137AM RECKLESS DRIVER
17-0504615 5 AZALEA LP May 25 2017 10:45:15:430AM BURGLARY
17-0504612 1935 CENTENNIAL CLUB DR May 25 2017 10:29:09:107AM ALARM
17-0504608 2501 DAVE WARD DR May 25 2017 10:04:43:690AM RECKLESS DRIVER
17-0504607 915 FRONT ST May 25 2017 09:57:26:613AM RUNAWAY
17-0504606 1100 BOB COURTWAY DR May 25 2017 09:56:36:280AM SUPPLEMENT REPORT CALL
17-0504604 17-06216 1325 OLD MORRILTON HWY May 25 2017 09:52:35:073AM FRAUD
17-0504603 17-06218 255 S MITCHELL ST May 25 2017 09:50:32:170AM BATTERY REPORT
17-0504598 1120 SKYLINE DR May 25 2017 09:16:00:943AM VEHICLE TOW
17-0504596 3285 COLLEGE AV May 25 2017 09:02:19:333AM CHECK ON THE WELFARE
17-0504594 17-06214 2324 WASHINGTON AV May 25 2017 08:55:25:710AM ATTEMPT TO CONTACT
17-0504593 17-06215 3590 CUTTER RIDGE RD May 25 2017 08:47:28:477AM DEATH CALL
17-0504588 1845 FOSTER DR May 25 2017 08:31:21:200AM ALARM
17-0504587 1913 TYLER ST May 25 2017 08:26:09:310AM ATTEMPT TO CONTACT
17-0504584 1525 CLIFTON ST May 25 2017 08:01:40:980AM FELONY WARRANT SERVICE
17-0504581 3202 PRINCE ST May 25 2017 07:47:37:050AM ROAD RAGE
17-0504578 1405 S DONAGHEY AV May 25 2017 07:15:18:787AM UNAUTHORIZED USE OF MOTOR VEHICLE
17-0504576 17-06212 475 ROBINS ST May 25 2017 07:03:29:613AM MISSING PERSON
17-0504575 1080 PAT'S LN May 25 2017 06:58:33:573AM ALARM
17-0504574 2925 PRINCE ST May 25 2017 05:33:15:080AM ALARM - BANK
17-0504573 235 FARRIS RD May 25 2017 05:30:01:237AM ALARM
17-0504571 129 I40WB May 25 2017 03:48:42:450AM TRAFFIC PROBLEM-CONTROL
17-0504570 1922 BRUCE ST May 25 2017 02:34:30:117AM REPOSSESSION
17-0504569 935 SHERMAN OAKS CIR May 25 2017 01:53:25:910AM SUSPICIOUS PERSON
17-0504568 17-06209 2995 BILLY JACK DR May 25 2017 01:50:29:737AM TERRORISTIC THREATENING
17-0504567 500 SOUTH GERMAN LN May 25 2017 01:38:03:730AM SHOTS FIRED
17-0504565 17-06206 817 E SIEBENMORGEN RD May 25 2017 01:36:38:290AM ACCIDENT - PERSONAL INJURY
17-0504564 895 OAK ST May 25 2017 01:35:36:173AM ATTEMPT TO CONTACT
17-0504562 17-06210 5355 WILDE DR May 25 2017 01:05:11:150AM PROWLER
17-0504561 14 LAKEVIEW DR May 25 2017 12:48:25:443AM ARMED SUBJECT
17-0504550 1120 SKYLINE DR May 24 2017 11:18:57:010PM SUSPICIOUS PERSON
17-0504549 1625 GARDENIA May 24 2017 11:15:24:393PM SUSPICIOUS PERSON
17-0504547 1735 CHICOT DR May 24 2017 11:09:22:583PM SUSPICIOUS PERSON
17-0504546 1312 HILLCREST DR May 24 2017 11:02:01:813PM SUSPICIOUS PERSON
17-0504539 646 S HARKRIDER DR May 24 2017 10:16:52:450PM ALARM
17-0504534 3099 SALEM RD May 24 2017 09:11:32:063PM DISTURBANCE
17-0504532 2925 PEBBLE BEACH DR May 24 2017 09:03:41:720PM LOUD NOISE-MUSIC
17-0504530 1340 OLD MORRILTON HWY May 24 2017 08:52:54:383PM ALARM
17-0504528 555 INGRAM ST May 24 2017 08:39:11:917PM PROWLER
17-0504527 1002 CLIFTON ST May 24 2017 08:37:09:707PM RECKLESS DRIVER
17-0504526 607 SOUTH GERMAN LN May 24 2017 08:34:02:927PM ATTEMPT TO CONTACT
17-0504524 1010 APPLEWOOD DR May 24 2017 07:35:48:810PM ALARM
17-0504522 17-06201 1204 DAVIS ST May 24 2017 07:24:03:230PM ACCIDENT - PROPERTY DAMAGE
17-0504521 17-06202 1555 EXCHANGE AV May 24 2017 07:12:29:240PM ATTEMPT TO CONTACT
17-0504520 1200 DAVE WARD DR May 24 2017 06:54:30:680PM RECKLESS DRIVER
17-0504519 2200 PRINCE ST May 24 2017 06:31:30:917PM TRAFFIC PROBLEM-CONTROL
17-0504518 326 LOCUST AV May 24 2017 06:28:38:090PM ATTEMPT TO CONTACT
17-0504517 626 LOCUST AV May 24 2017 06:26:55:137PM ATTEMPT TO CONTACT
17-0504516 4845 PARK PLACE DR May 24 2017 06:13:18:243PM MISSING PERSON
17-0504515 859 MILAM DR May 24 2017 06:11:56:440PM RECKLESS DRIVER
17-0504514 1201 DONAGHEY AV May 24 2017 06:09:27:123PM HARASSMENT
17-0504513 17-06200 1135 SKYLINE DR May 24 2017 05:56:29:683PM INDECENT EXPOSURE
17-0504512 3250 JW AND PAT BROWN BLVD May 24 2017 05:55:25:070PM SUSPICIOUS VEHICLE
17-0504510 1699 MIDDLE RD May 24 2017 05:38:24:840PM TRAFFIC PROBLEM-CONTROL
17-0504509 1172 WOODSIDE DR May 24 2017 05:27:00:327PM THEFT OF PROPERTY
17-0504508 500 OAK ST May 24 2017 05:22:27:720PM DISTURBANCE
17-0504506 17-06198 900 S AMITY RD May 24 2017 05:09:32:003PM ACCIDENT - PROPERTY DAMAGE
17-0504505 1500 E DAVE WARD DR May 24 2017 05:07:55:293PM ALARM
17-0504504 100 SKYLINE DR May 24 2017 05:06:26:067PM INTOXICATED DRIVER
17-0504503 125 LOWER RIDGE RD May 24 2017 05:02:28:783PM CHECK ON THE WELFARE
17-0504502 17-06197 1619 DAVIS ST May 24 2017 05:01:08:900PM ANIMAL BITE
17-0504501 450 ROBINS ST May 24 2017 04:56:22:310PM ATTEMPT TO CONTACT
17-0504500 17-06196 1200 E DAVE WARD DR May 24 2017 04:53:00:630PM ACCIDENT - PROPERTY DAMAGE
17-0504499 500 SOUTH GERMAN LN May 24 2017 04:50:34:873PM MISDEMEANOR WARRANT SERVICE
17-0504498 127 I40WB May 24 2017 04:46:53:860PM RECKLESS DRIVER
17-0504497 1601 HOGAN LN May 24 2017 04:44:09:920PM CIVIL MATTER
17-0504495 17-06195 1900 BRUCE ST May 24 2017 04:42:15:110PM FRAUD
17-0504493 17-06199 101 OAK ST May 24 2017 04:33:54:553PM SHOPLIFTING
17-0504489 100 BROOKSIDE DR May 24 2017 04:09:28:180PM ATTEMPT TO CONTACT
17-0504488 855 SALEM RD May 24 2017 03:55:03:130PM FIGHT
17-0504487 1800 FREYALDENHOVEN LN May 24 2017 03:51:18:240PM 911 HANGUP CALL
17-0504486 17-06194 3900 DAVE WARD DR May 24 2017 03:50:16:127PM FRAUD
17-0504485 500 SOUTH GERMAN LN May 24 2017 03:49:24:440PM MISDEMEANOR WARRANT SERVICE
17-0504484 2216 LOOKOUT AV May 24 2017 03:43:44:470PM VEHICLE TOW
17-0504482 500 ELSINGER BLVD May 24 2017 03:35:25:977PM SUPPLEMENT REPORT CALL
17-0504481 17-06193 3196 COLLEGE AV May 24 2017 03:30:49:463PM ACCIDENT - PROPERTY DAMAGE
17-0504480 17-06191 4085 MARBLE DR May 24 2017 03:25:53:353PM ACCIDENT - PERSONAL INJURY
17-0504477 17-06192 1150 MUSEUM RD May 24 2017 03:19:58:313PM BURGLARY
17-0504475 3000 WILLOW RUN DR May 24 2017 03:12:48:880PM SUPPLEMENT REPORT CALL
17-0504473 1431 STURGIS RD May 24 2017 03:02:50:160PM ATTEMPT TO CONTACT
17-0504472 800 S DONAGHEY AV May 24 2017 02:58:59:153PM RECKLESS DRIVER
17-0504468 623 MERRIMAN ST May 24 2017 02:39:52:710PM ATTEMPT TO CONTACT
17-0504467 1100 BOB COURTWAY DR May 24 2017 02:39:28:897PM SUPPLEMENT REPORT CALL
17-0504466 608 ROBINS ST May 24 2017 02:36:42:393PM ATTEMPT TO CONTACT
17-0504465 17-06185 1218 HAMILTON ST May 24 2017 02:35:42:197PM ATTEMPT TO CONTACT
17-0504463 500 SOUTH GERMAN LN May 24 2017 02:29:50:543PM MISDEMEANOR WARRANT SERVICE
17-0504462 17-06188 701 LOCUST AV May 24 2017 02:29:06:610PM LOST PROPERTY
17-0504460 2755 ARCHER LN May 24 2017 02:27:10:597PM HARASSING COMMUNICATIONS
17-0504459 499 PRINCESTON DR May 24 2017 02:26:37:943PM SUPPLEMENT REPORT CALL
17-0504455 1 ROWLETT LN May 24 2017 02:04:33:443PM ACCIDENT - PROPERTY DAMAGE
17-0504454 17-06181 1052 HARRISON ST May 24 2017 01:59:56:890PM ACCIDENT - PRIVATE PROPERTY
17-0504451 1155 SKYLINE DR May 24 2017 01:49:05:897PM PEDDLER
17-0504449 1525 CLIFTON ST May 24 2017 01:45:57:113PM ATTEMPT TO CONTACT
17-0504443 3199 YORK LN May 24 2017 01:09:28:390PM SUSPICIOUS PERSON
17-0504440 1306 CADRON GAP RD May 24 2017 12:54:17:873PM ACCIDENT - PEDESTRIAN
17-0504439 17-06178 3000 WILLOW RUN DR May 24 2017 12:54:11:693PM ACCIDENT - PERSONAL INJURY
17-0504435 1018 CLIFTON ST May 24 2017 12:37:33:460PM INTERFERENCE WITH CUSTODY
17-0504431 2550 PRINCE ST May 24 2017 12:15:01:113PM DOMESTIC DISTURBANCE
17-0504426 500 SOUTH GERMAN LN May 24 2017 11:52:23:030AM MISDEMEANOR WARRANT SERVICE
17-0504421 517 DAVIS ST May 24 2017 11:37:17:100AM HARASSING COMMUNICATIONS
17-0504420 17-06171 18 WOODLAWN DR May 24 2017 11:31:39:727AM THEFT OF PROPERTY
17-0504419 17-06172 1005 SOUTH GERMAN LN May 24 2017 11:30:46:503AM DISTURBANCE
17-0504417 475 ROBINS ST May 24 2017 11:27:07:567AM CHECKING PERSON
17-0504416 1204 DAVIS ST May 24 2017 11:26:32:137AM HARASSING COMMUNICATIONS
17-0504415 17-06174 2112 TYLER ST May 24 2017 11:19:54:987AM THEFT OF PROPERTY
17-0504414 17-06170 1800 FREYALDENHOVEN LN May 24 2017 11:18:19:337AM THEFT OF PROPERTY
17-0504412 1120 JIM'S LN May 24 2017 11:11:28:157AM SUPPLEMENT REPORT CALL
17-0504407 401 2ND ST May 24 2017 10:47:42:920AM ATTEMPT TO CONTACT
17-0504404 17-06169 2255 LINDA DR May 24 2017 10:43:05:433AM THEFT OF PROPERTY
17-0504402 17-06168 510 SOUTH GERMAN LN May 24 2017 10:21:31:487AM FELONY WARRANT SERVICE
17-0504398 17-06166 2750 GARDEN GROVE DR May 24 2017 10:12:36:903AM BREAKING OR ENTERING
17-0504397 17-06167 810 ELSINGER BLVD May 24 2017 10:08:25:130AM FRAUD
17-0504396 2125 HARKRIDER ST May 24 2017 10:03:07:650AM SUPPLEMENT REPORT CALL
17-0504394 17-06164 1250 INGRAM ST May 24 2017 09:57:37:287AM CHECKING PERSON
17-0504393 1360 TORREYSON ST May 24 2017 09:36:23:927AM ATTEMPT TO CONTACT
17-0504391 607 SOUTH GERMAN LN May 24 2017 09:33:27:293AM ATTEMPT TO CONTACT
17-0504390 500 ELSINGER BLVD May 24 2017 09:32:44:167AM SUPPLEMENT REPORT CALL
17-0504378 18 WOODLAWN DR May 24 2017 08:45:40:213AM THEFT OF PROPERTY
17-0504377 17-06163 500 ELSINGER BLVD May 24 2017 08:42:26:497AM THEFT OF PROPERTY
17-0504371 4 HART LN May 24 2017 08:18:15:440AM AGENCY ASSIST
17-0504363 17-06162 1335 E OAK ST May 24 2017 07:49:10:503AM CHECK ON THE WELFARE
17-0504360 2500 OLD MORRILTON HWY May 24 2017 07:20:08:930AM RECKLESS DRIVER
17-0504359 2450 APPLE BLOSSOM May 24 2017 07:16:47:547AM ALARM
17-0504356 700 PADGETT RD May 24 2017 07:02:44:820AM ALARM
17-0504355 17-06161 855 SALEM RD May 24 2017 06:56:08:753AM FRAUD
17-0504354 2450 APPLE BLOSSOM May 24 2017 06:34:57:590AM ALARM
17-0504352 17-06160 705 MUSEUM RD May 24 2017 06:26:49:680AM BREAKING OR ENTERING
17-0504349 40 SMOKING OAK RD May 24 2017 06:19:15:657AM UNKNOWN TROUBLE
17-0504348 3100 IRBY DR May 24 2017 05:44:55:043AM VEHICLE TOW
17-0504347 2225 MILLWOOD DR May 24 2017 05:23:19:567AM CIVIL STAND BY
17-0504346 14 MORNINGSIDE DR May 24 2017 05:06:19:840AM VEHICLE TOW
17-0504345 17-06159 2708 BRUCE ST May 24 2017 04:34:25:170AM DOMESTIC DISTURBANCE
17-0504343 1122 GUM ST May 24 2017 04:21:23:813AM CHECKING BUILDING
17-0504342 17-06158 550 SKYLINE DR May 24 2017 03:45:22:850AM FRAUD
17-0504341 1709 WASHINGTON AV May 24 2017 02:56:30:187AM DOMESTIC DISTURBANCE
17-0504340 17-06157 201 SKYLINE DR May 24 2017 02:33:23:767AM DOMESTIC DISTURBANCE
17-0504339 17-06154 2501 BRUCE ST May 24 2017 02:02:54:073AM ACCIDENT - PROPERTY DAMAGE
17-0504335 17-06152 810 ELSINGER BLVD May 24 2017 12:47:02:530AM LOST PROPERTY
17-0504332 17-06153 2730 DAVE WARD DR May 24 2017 12:13:54:020AM DOMESTIC DISTURBANCE
17-0504329 701 1ST AV May 23 2017 11:28:25:837PM LOUD NOISE-MUSIC
17-0504328 1 CADRON SETTLEMENT PARK RD May 23 2017 11:08:12:363PM CHECKING BUILDING
17-0504327 2125 HARKRIDER ST May 23 2017 11:04:33:603PM CHECKING PERSON
17-0504325 2125 HARKRIDER ST May 23 2017 10:55:55:563PM TRESPASSING
17-0504324 1406 HARTJE LN May 23 2017 10:45:20:503PM CHECK ON THE WELFARE
17-0504322 2235 LEE AV May 23 2017 10:27:43:353PM DISTURBANCE
17-0504321 1601 HOGAN LN May 23 2017 10:25:46:923PM ATTEMPT TO CONTACT
17-0504320 826 SPRUCE ST May 23 2017 10:20:12:787PM CHECKING PERSON
17-0504319 3670 JEANNA DR May 23 2017 10:13:58:673PM SUSPICIOUS PERSON
17-0504317 1155 SKYLINE DR May 23 2017 09:56:14:840PM FRAUD
17-0504316 475 ROBINS ST May 23 2017 09:55:47:177PM SHOTS FIRED
17-0504315 604 ROBINS ST May 23 2017 09:22:54:857PM ATTEMPT TO CONTACT
17-0504314 1300 FAIRLANE DR May 23 2017 09:21:34:367PM DISTURBANCE
17-0504312 680 2ND AV May 23 2017 09:08:06:890PM ALARM
17-0504311 1308 COLLIER DR May 23 2017 09:06:44:920PM CIVIL MATTER
17-0504309 2575 MORSE DR May 23 2017 08:36:37:530PM DISTURBANCE
17-0504308 365 STURGIS RD May 23 2017 08:31:47:087PM ATTEMPT TO CONTACT
17-0504306 2510 W SIMMS ST May 23 2017 08:17:48:863PM ATTEMPT TO CONTACT
17-0504301 1300 GUERNSEY DR May 23 2017 07:26:34:873PM CIVIL MATTER
17-0504300 31 MEADOWBROOK DR May 23 2017 07:26:14:333PM ATTEMPT TO CONTACT
17-0504298 2690 DONAGHEY AV May 23 2017 07:10:11:800PM ALARM - BANK
17-0504297 1020 TRILLIUM DR May 23 2017 07:00:15:840PM ATTEMPT TO CONTACT
17-0504296 17-06147 3099 SALEM RD May 23 2017 06:44:14:017PM ACCIDENT - PROPERTY DAMAGE
17-0504295 500 SOUTH GERMAN LN May 23 2017 06:40:58:000PM FELONY WARRANT SERVICE
17-0504294 17-06148 403 LOCUST AV May 23 2017 06:38:43:087PM CRIMINAL MISCHIEF
17-0504293 930 WINGATE DR May 23 2017 06:25:06:640PM ALARM
17-0504292 985 RUNWAY DR May 23 2017 06:22:36:097PM ALARM
17-0504291 801 HOGAN LN May 23 2017 05:53:38:560PM TRESPASSING
17-0504290 3034 DONNELL RIDGE RD May 23 2017 05:45:55:183PM DOMESTIC DISTURBANCE
17-0504289 1201 DONAGHEY AV May 23 2017 05:32:49:490PM CHECK ON THE WELFARE
17-0504288 4700 PRINCE ST May 23 2017 05:31:59:020PM TRESPASSING
17-0504287 43 WHITE OAK DR May 23 2017 05:28:16:180PM ALARM
17-0504284 1931 MARTIN ST May 23 2017 05:04:32:240PM CIVIL STAND BY
17-0504282 916 E OAK ST May 23 2017 04:50:22:043PM ACCIDENT - PRIVATE PROPERTY
17-0504280 17-06146 1613 GREENWOOD CIR May 23 2017 04:30:39:980PM FRAUD
17-0504278 1710 S SALEM RD May 23 2017 04:26:13:720PM ATTEMPT TO CONTACT
17-0504277 475 ROBINS ST May 23 2017 04:16:18:503PM AGENCY ASSIST
17-0504274 314 HELEN ST May 23 2017 03:51:20:907PM REPOSSESSION
17-0504272 17-06145 475 ROBINS ST May 23 2017 03:35:10:910PM FRAUD
17-0504271 2840 DAVE WARD DR May 23 2017 03:33:49:803PM ALARM
17-0504269 518 4TH ST May 23 2017 03:23:24:047PM AGENCY ASSIST
17-0504268 20 KINLEY DR May 23 2017 03:19:18:850PM CHECK ON THE WELFARE
17-0504259 2840 DAVE WARD DR May 23 2017 02:23:00:487PM VEHICLE TOW
17-0504256 1710 S SALEM RD May 23 2017 02:11:02:450PM SUPPLEMENT REPORT CALL
17-0504254 3900 DAVE WARD DR May 23 2017 01:55:58:477PM SUPPLEMENT REPORT CALL
17-0504252 2330 SANDERS ST May 23 2017 01:34:43:357PM TRESPASSING
17-0504251 1005 E OAK ST May 23 2017 01:30:52:163PM VEHICLE TOW
17-0504250 17-06143 501 ELSINGER BLVD May 23 2017 01:30:48:120PM ACCIDENT - PRIVATE PROPERTY
17-0504247 300 S DONAGHEY AV May 23 2017 01:17:45:257PM CIVIL MATTER
17-0504246 17-06142 558 HARKRIDER ST May 23 2017 01:17:16:073PM ACCIDENT - PROPERTY DAMAGE
17-0504245 1730 S SALEM RD May 23 2017 01:15:40:087PM SUPPLEMENT REPORT CALL
17-0504242 150 E OAK ST May 23 2017 01:12:07:063PM CHECKING VEHICLE
17-0504241 17-06141 2270 MEADOWLAKE RD May 23 2017 12:47:49:510PM BATTERY REPORT
17-0504240 4675 OLD MORRILTON HWY May 23 2017 12:43:53:790PM ATTEMPT TO CONTACT
17-0504237 17-06139 650 SIMON ST May 23 2017 12:34:22:907PM ACCIDENT - PRIVATE PROPERTY
17-0504235 17-06137 1815 PRINCE ST May 23 2017 12:26:54:000PM BATTERY REPORT
17-0504233 2501 DAVE WARD DR May 23 2017 12:20:16:610PM VEHICLE TOW
17-0504226 124 I40WB May 23 2017 11:32:08:523AM CHECK ON THE WELFARE
17-0504224 777 S EAST GERMAN LN May 23 2017 11:23:52:090AM CIVIL MATTER
17-0504223 17-06132 1135 CLARENCE DR May 23 2017 11:15:01:797AM THEFT OF PROPERTY
17-0504218 17-06130 150 E SIEBENMORGEN RD May 23 2017 10:48:47:957AM ABUSE
17-0504215 1155 SKYLINE DR May 23 2017 10:31:29:097AM ATTEMPT TO CONTACT
17-0504209 1320 TORREYSON ST May 23 2017 10:11:25:017AM ASSAULT
17-0504208 1907 CLEVELAND AV May 23 2017 10:04:43:290AM THEFT OF PROPERTY
17-0504206 17-06129 1100 BOB COURTWAY DR May 23 2017 09:56:56:200AM ACCIDENT - PRIVATE PROPERTY
17-0504205 400 WILLOW ST May 23 2017 09:52:52:107AM CHECKING PERSON
17-0504204 1499 LINCOLN ST May 23 2017 09:51:38:013AM CHECKING VEHICLE
17-0504203 1500 HARKRIDER ST May 23 2017 09:39:55:533AM TRESPASSING
17-0504201 1405 S DONAGHEY AV May 23 2017 09:32:29:153AM TERRORISTIC THREATENING
17-0504200 17-06127 2254 E OAK ST May 23 2017 09:28:48:407AM ACCIDENT - PROPERTY DAMAGE
17-0504199 2455 WASHINGTON AV May 23 2017 09:22:01:333AM DISTURBANCE
17-0504196 17-06126 811 E OAK ST May 23 2017 09:07:52:860AM ACCIDENT - PROPERTY DAMAGE
17-0504194 500 E OAK ST May 23 2017 08:45:27:887AM CHECK ON THE WELFARE
17-0504192 1925 CLIFTON ST May 23 2017 08:38:11:937AM CHECK ON THE WELFARE
17-0504190 17-06124 230 PICKWICKET DR May 23 2017 08:32:08:100AM FRAUD
17-0504189 17-06125 300 E DAVE WARD DR May 23 2017 08:26:33:017AM ACCIDENT - PROPERTY DAMAGE
17-0504188 245 OAK ST May 23 2017 08:24:39:830AM ALARM
17-0504185 17-06123 2699 DONAGHEY AV May 23 2017 08:11:18:487AM ACCIDENT - PROPERTY DAMAGE
17-0504181 2008 CREEKWOOD DR May 23 2017 07:51:43:617AM MISSING PERSON
17-0504179 1617 WESTLAKE DR May 23 2017 07:45:23:280AM CHECK ON THE WELFARE
17-0504178 1105 PRAIRIE ST May 23 2017 07:21:22:380AM CIVIL MATTER
17-0504174 17-06122 501 ELSINGER BLVD May 23 2017 06:43:08:370AM LOST PROPERTY
17-0504172 245 FARRIS RD May 23 2017 05:56:35:413AM ALARM
17-0504171 2475 SANDERS ST May 23 2017 05:16:21:013AM SUSPICIOUS PERSON
17-0504170 4095 PRINCE ST May 23 2017 04:41:51:167AM ATTEMPT TO CONTACT
17-0504169 1 CONWAY TOWNE CENTRE DR May 23 2017 04:10:28:010AM LOG VEHICLE
17-0504168 17-06121 4095 PRINCE ST May 23 2017 03:16:37:207AM SUSPICIOUS PERSON
17-0504165 17-06118 2290 REMINGTON RD May 23 2017 01:44:45:173AM CHECKING VEHICLE
17-0504164 616 4TH AV May 23 2017 01:41:18:827AM CHECK ON THE WELFARE
17-0504163 499 HEREFORD ST May 23 2017 01:27:38:383AM CHECKING VEHICLE
17-0504160 1060 S AMITY RD May 23 2017 12:52:05:410AM CHECKING VEHICLE
17-0504159 3196 COLLEGE AV May 23 2017 12:31:19:917AM RECKLESS DRIVER
17-0504158 1266 S AMITY RD May 23 2017 12:30:00:770AM ALARM
17-0504157 17-06117 2840 DAVE WARD DR May 23 2017 12:28:28:383AM DISTURBANCE
17-0504156 260 SALEM RD May 23 2017 12:14:39:260AM LOUD NOISE-MUSIC
17-0504154 1090 SKYLINE DR May 22 2017 11:45:05:427PM LOUD NOISE-MUSIC
17-0504153 1900 SCOTT ST May 22 2017 11:33:27:917PM CHECKING PERSON
17-0504151 1266 S AMITY RD May 22 2017 11:15:58:150PM ALARM
17-0504150 1352 COLLEGE AV May 22 2017 11:07:41:117PM RECKLESS DRIVER
17-0504148 5375 TRINITY CROSSING DR May 22 2017 10:50:54:880PM PROWLER
17-0504147 1611 WESTLAKE DR May 22 2017 10:41:00:070PM LOUD NOISE-MUSIC
17-0504146 2619 W MARTIN ST May 22 2017 10:39:36:037PM RECOVERED VEHICLE
17-0504145 835 S DONAGHEY AV May 22 2017 10:35:09:960PM VEHICLE TOW
17-0504144 17-06116 1619 WESTLAKE DR May 22 2017 10:08:39:080PM BURGLARY
17-0504143 1435 MADDOX DR May 22 2017 09:57:50:883PM SUSPICIOUS PERSON
17-0504142 17-06115 2050 DAVE WARD DR May 22 2017 09:57:25:333PM THEFT OF PROPERTY
17-0504141 1 CADRON SETTLEMENT PARK RD May 22 2017 09:53:03:697PM CHECKING BUILDING
17-0504140 2275 MOIX BLVD May 22 2017 09:39:34:960PM VEHICLE TOW
17-0504139 1156 FRONT ST May 22 2017 09:26:24:847PM ALARM
17-0504138 2475 SANDERS ST May 22 2017 09:21:07:137PM SUSPICIOUS PERSON
17-0504136 2125 HARKRIDER ST May 22 2017 08:55:12:320PM THEFT OF PROPERTY
17-0504135 2015 RICH SMITH LN May 22 2017 08:54:06:340PM SUSPICIOUS PERSON
17-0504134 17-06114 219 CENTER ST May 22 2017 08:53:45:637PM THEFT OF PROPERTY
17-0504133 1502 DAVIS ST May 22 2017 08:19:17:843PM SUPPLEMENT REPORT CALL
17-0504132 17-06113 1272 S AMITY RD May 22 2017 08:15:54:620PM SUSPICIOUS VEHICLE
17-0504131 1709 HUTTO ST May 22 2017 08:13:58:203PM DISTURBANCE
17-0504130 17-06112 4010 IRBY DR May 22 2017 07:59:37:957PM ACCIDENT - PRIVATE PROPERTY
17-0504129 2200 MEADOWLAKE RD May 22 2017 07:52:44:277PM SUSPICIOUS VEHICLE
17-0504127 2399 HOGAN LN May 22 2017 07:36:21:037PM ATTEMPT TO CONTACT
17-0504126 1065 CLAYTON ST May 22 2017 07:33:07:187PM TRESPASSING
17-0504124 1405 S DONAGHEY AV May 22 2017 07:15:22:240PM ANIMAL BITE
17-0504122 542 FACTORY ST May 22 2017 06:37:43:237PM DOMESTIC DISTURBANCE
17-0504121 2302 COLLEGE AV May 22 2017 06:18:38:637PM AGENCY ASSIST
17-0504120 500 SOUTH GERMAN LN May 22 2017 06:14:16:513PM FELONY WARRANT SERVICE
17-0504119 150 E OAK ST May 22 2017 05:39:21:530PM CHECK ON THE WELFARE
17-0504118 51 FRANCES DR May 22 2017 05:35:50:830PM LOUD NOISE-MUSIC
17-0504117 17-06108 1301 BRUCE ST May 22 2017 05:21:55:847PM ACCIDENT - PROPERTY DAMAGE
17-0504116 17-06110 1155 CUMULUS DR May 22 2017 05:17:41:473PM CRIMINAL MISCHIEF
17-0504115 300 HARKRIDER ST May 22 2017 05:15:11:647PM SHOPLIFTING
17-0504114 17-06106 370 DENISON ST May 22 2017 05:01:49:780PM FRAUD
17-0504113 17-06109 1460 CHAMPIONS DR May 22 2017 04:55:33:340PM BURGLARY
17-0504112 1935 CENTENNIAL CLUB DR May 22 2017 04:49:32:083PM ALARM
17-0504111 17-06107 550 E DAVE WARD DR May 22 2017 04:42:48:837PM ACCIDENT - PROPERTY DAMAGE
17-0504109 1120 EAST GERMAN LN May 22 2017 04:29:17:830PM PARKING VIOLATION
17-0504107 1010 MAIN ST May 22 2017 04:26:35:667PM SUPPLEMENT REPORT CALL
17-0504106 17-06105 1205 E SKYLINE DR May 22 2017 04:25:36:273PM ACCIDENT - PROPERTY DAMAGE
17-0504105 500 ELSINGER BLVD May 22 2017 04:07:19:190PM CHECK ON THE WELFARE
17-0504104 17-06104 264 E SKYLINE DR May 22 2017 04:06:18:387PM ACCIDENT - HIT AND RUN
17-0504102 1304 COLLIER DR May 22 2017 03:58:16:500PM CHECKING VEHICLE
17-0504101 17-06102 1500 JOSEPHINE CIR May 22 2017 03:56:54:473PM THEFT OF PROPERTY
17-0504099 17-06103 515 HARKRIDER ST May 22 2017 03:38:19:933PM BATTERY REPORT
17-0504096 17-06101 2228 INDEPENDENCE AV May 22 2017 03:25:31:713PM BURGLARY
17-0504095 17-06100 101 OAK ST May 22 2017 03:25:13:697PM ACCIDENT - PRIVATE PROPERTY
17-0504091 3715 PRINCE ST May 22 2017 03:03:32:190PM ALARM - HOLD UP or PANIC
17-0504090 17-06098 2213 STOUT ST May 22 2017 03:02:07:200PM BATTERY REPORT
17-0504089 501 ELSINGER BLVD May 22 2017 02:58:20:167PM PARKING VIOLATION
17-0504087 1715 BOWIE ST May 22 2017 02:48:48:853PM SUPPLEMENT REPORT CALL
17-0504086 700 ELSINGER BLVD May 22 2017 02:43:21:557PM CHECK ON THE WELFARE
17-0504082 17-06097 714 HARKRIDER ST May 22 2017 02:13:56:690PM THEFT OF SERVICES
17-0504081 2325 DAVE WARD DR May 22 2017 02:12:10:463PM THEFT OF VEHICLE
17-0504080 1000 MORNINGSIDE DR May 22 2017 02:05:46:453PM SUPPLEMENT REPORT CALL
17-0504077 1515 DAVE WARD DR May 22 2017 01:45:30:483PM SUSPICIOUS ACTIVITY
17-0504074 1010 MAIN ST May 22 2017 01:20:43:210PM LOST PROPERTY
17-0504072 17-06095 2106 ROBINSON AV May 22 2017 01:09:03:050PM ACCIDENT - PROPERTY DAMAGE
17-0504070 1266 S AMITY RD May 22 2017 01:01:18:300PM SUSPICIOUS ACTIVITY
17-0504069 17-06094 2455 WASHINGTON AV May 22 2017 12:52:19:613PM ACCIDENT - PRIVATE PROPERTY
17-0504068 17-06092 116 S HARKRIDER DR May 22 2017 12:45:49:293PM ACCIDENT - PROPERTY DAMAGE
17-0504067 17-06093 605 SALEM RD May 22 2017 12:41:27:683PM THEFT OF PROPERTY
17-0504065 105 CLUB LN May 22 2017 12:36:09:060PM DOMESTIC DISTURBANCE
17-0504060 621 OAK ST May 22 2017 12:11:09:327PM FRAUD
17-0504058 2840 DAVE WARD DR May 22 2017 12:03:21:937PM SUPPLEMENT REPORT CALL
17-0504057 May 22 2017 11:50:02:583AM ATTEMPT TO CONTACT
17-0504055 775 EQUITY AV May 22 2017 11:40:29:060AM SUPPLEMENT REPORT CALL
17-0504054 3900 DAVE WARD DR May 22 2017 11:32:50:017AM FRAUD
17-0504053 17-06091 335 GRANDVIEW HEIGHTS DR May 22 2017 11:13:50:113AM ILLEGAL DUMPING
17-0504050 17-06090 1060 HOGAN LN May 22 2017 10:53:52:363AM FRAUD
17-0504048 425 COMMERCE RD May 22 2017 10:49:03:530AM FOUND PROPERTY
17-0504045 17-06089 4830 TRINITY CROSSING DR May 22 2017 10:24:59:240AM FRAUD
17-0504044 1155 SKYLINE DR May 22 2017 10:01:47:993AM DISTURBANCE
17-0504043 931 CENTER ST May 22 2017 09:49:04:910AM FRAUD
17-0504042 17-06087 1214 CLIFTON ST May 22 2017 09:46:41:297AM THEFT OF PROPERTY
17-0504041 375 E OAK ST May 22 2017 09:44:54:393AM CHECK ON THE WELFARE
17-0504039 17-06088 1555 EXCHANGE AV May 22 2017 09:40:01:420AM LOST PROPERTY
17-0504038 810 TURNER TRL May 22 2017 09:36:32:817AM SUPPLEMENT REPORT CALL
17-0504037 827 HOGAN LN May 22 2017 09:26:50:050AM ATTEMPT TO CONTACT
17-0504030 300 E DAVE WARD DR May 22 2017 08:47:57:573AM CHECK ON THE WELFARE
17-0504028 855 AMITY RD May 22 2017 08:40:14:507AM ALARM
17-0504027 855 SALEM RD May 22 2017 08:16:16:870AM SUPPLEMENT REPORT CALL
17-0504024 17-06086 2811 BRUCE ST May 22 2017 08:08:21:427AM LOST PROPERTY
17-0504016 810 MUSEUM RD May 22 2017 06:09:05:457AM TRESPASSING
17-0504015 3430 IRBY DR May 22 2017 04:58:33:823AM TERRORISTIC THREATENING
17-0504013 1122 GUM ST May 22 2017 03:03:57:107AM CHECKING VEHICLE
17-0504010 620 ELSINGER BLVD May 22 2017 01:44:47:807AM ALARM
17-0504009 527 ASH ST May 22 2017 01:38:38:993AM LOUD NOISE-MUSIC
17-0504007 17-06084 3002 PRINCE ST May 22 2017 01:01:51:487AM ACCIDENT - PROPERTY DAMAGE
17-0504006 1730 MILESTONE DR May 22 2017 12:55:42:250AM SUSPICIOUS PERSON
17-0504005 1105 PRAIRIE ST May 22 2017 12:49:13:700AM ATTEMPT TO CONTACT
17-0504004 400 WILLOW ST May 22 2017 12:46:30:960AM FIGHT
17-0504003 605 SOUTH GERMAN LN May 22 2017 12:27:28:380AM PARKING VIOLATION
17-0504000 17-06083 395 YALE DR May 21 2017 11:59:01:660PM MISDEMEANOR WARRANT SERVICE
17-0503996 1218 HAMILTON ST May 21 2017 11:27:13:890PM DOMESTIC DISTURBANCE
17-0503994 4675 OLD MORRILTON HWY May 21 2017 11:05:49:780PM ATTEMPT TO CONTACT
17-0503993 501 ELSINGER BLVD May 21 2017 10:49:41:967PM ATTEMPT TO CONTACT
17-0503992 2695 DAVE WARD DR May 21 2017 10:19:23:980PM SUSPICIOUS ACTIVITY
17-0503990 17-06081 801 HOGAN LN May 21 2017 10:12:24:397PM ACCIDENT - PROPERTY DAMAGE
17-0503988 3147 VIRGINIA ST May 21 2017 09:47:11:650PM CIVIL MATTER
17-0503985 111 LOCUST AV May 21 2017 08:58:51:063PM CITIZEN ASSIST
17-0503984 2113 BROADVIEW AV May 21 2017 08:55:57:510PM BURGLARY
17-0503983 646 S HARKRIDER DR May 21 2017 08:51:02:903PM INTOXICATED PERSON
17-0503982 2925 PRINCE ST May 21 2017 08:47:56:090PM ALARM
17-0503979 3100 IRBY DR May 21 2017 08:31:33:580PM CIVIL MATTER
17-0503977 17-06079 1701 DONAGHEY AV May 21 2017 08:17:58:463PM FIGHT
17-0503976 4001 OLD MORRILTON HWY May 21 2017 07:56:48:847PM RECKLESS DRIVER
17-0503975 1450 MARLISE DR May 21 2017 07:52:46:593PM INTOXICATED DRIVER
17-0503973 810 MERRIMAN ST May 21 2017 07:51:42:713PM ATTEMPT TO CONTACT
17-0503972 529 3RD AV May 21 2017 07:49:05:567PM LOUD NOISE-MUSIC
17-0503971 2050 DAVE WARD DR May 21 2017 07:48:42:947PM INTOXICATED DRIVER
17-0503970 17-06078 2550 PRINCE ST May 21 2017 07:19:54:733PM SHOPLIFTING
17-0503968 1105 E OAK ST May 21 2017 06:55:32:843PM DISTURBANCE
17-0503967 1250 OLD MORRILTON HWY May 21 2017 06:45:10:153PM ATTEMPT TO CONTACT
17-0503966 219 GARLAND ST May 21 2017 06:43:52:433PM CRIMINAL MISCHIEF
17-0503965 450 ROBINS ST May 21 2017 06:25:28:830PM INTOXICATED PERSON
17-0503964 605 DAVE WARD DR May 21 2017 06:25:15:160PM ALARM
17-0503962 17-06076 2012 MARTIN ST May 21 2017 06:14:16:773PM HARASSMENT
17-0503959 2300 HOGAN LN May 21 2017 05:27:02:533PM SUSPICIOUS PERSON
17-0503958 1600 WESTLAKE DR May 21 2017 05:19:17:557PM LOUD NOISE-MUSIC
17-0503957 17-06075 2750 GARDEN GROVE DR May 21 2017 05:05:52:043PM BREAKING OR ENTERING
17-0503956 17-06074 475 ROBINS ST May 21 2017 04:48:48:570PM ATTEMPT TO CONTACT
17-0503955 475 ROBINS ST May 21 2017 04:36:15:407PM ATTEMPT TO CONTACT
17-0503954 17-06073 120 E OAK ST May 21 2017 04:11:57:700PM THEFT OF PROPERTY
17-0503953 2125 HARKRIDER ST May 21 2017 03:53:03:610PM CHECKING VEHICLE
17-0503952 112 SHAMROCK DR May 21 2017 03:33:11:117PM MISSING PERSON
17-0503950 1105 PRAIRIE ST May 21 2017 03:05:52:943PM ATTEMPT TO CONTACT
17-0503949 3910 GABRIAL DR May 21 2017 03:03:07:503PM PARKING VIOLATION
17-0503947 1360 TORREYSON ST May 21 2017 02:56:13:097PM DOMESTIC DISTURBANCE
17-0503945 701 ELSINGER BLVD May 21 2017 02:43:13:563PM LOITERING
17-0503944 2510 W SIMMS ST May 21 2017 02:36:32:773PM THEFT OF PROPERTY
17-0503942 2695 DAVE WARD DR May 21 2017 02:30:05:147PM ACCIDENT - PRIVATE PROPERTY
17-0503940 17-06070 1161 OLD MORRILTON HWY May 21 2017 02:17:51:230PM ACCIDENT - PRIVATE PROPERTY
17-0503939 201 LEE ANDREW LN May 21 2017 02:16:21:197PM ALARM
17-0503938 760 S HOGAN LN May 21 2017 02:10:40:250PM SUSPICIOUS ACTIVITY
17-0503937 17-06071 855 SALEM RD May 21 2017 02:05:39:600PM THEFT OF PROPERTY
17-0503936 17-06069 20 KINLEY DR May 21 2017 01:59:26:353PM ACCIDENT - PRIVATE PROPERTY
17-0503935 2750 GARDEN GROVE DR May 21 2017 01:58:04:677PM BREAKING OR ENTERING
17-0503933 2135 OLD MORRILTON HWY May 21 2017 01:47:36:393PM THEFT OF PROPERTY
17-0503932 16 PAMELA LN May 21 2017 01:45:19:137PM SUSPICIOUS PERSON
17-0503931 2400 DONAGHEY AV May 21 2017 01:42:03:290PM CHECKING VEHICLE
17-0503930 900 DAVIS ST May 21 2017 01:40:54:640PM SUSPICIOUS PACKAGE
17-0503929 2700 HWY 25 N May 21 2017 01:40:49:200PM ACCIDENT - PROPERTY DAMAGE
17-0503928 2201 LOOKOUT AV May 21 2017 01:35:43:073PM HARASSMENT
17-0503926 2810 YORK LN May 21 2017 01:32:33:727PM ALARM
17-0503925 1155 SKYLINE DR May 21 2017 01:30:30:063PM CHECKING PERSON
17-0503922 2790 ARROW SMITH LN May 21 2017 01:00:30:840PM ATTEMPT TO CONTACT
17-0503921 17-06067 810 TURNER TRL May 21 2017 12:53:30:087PM THEFT OF PROPERTY
17-0503918 2000 KEATHLEY DR May 21 2017 12:33:19:120PM CIVIL MATTER
17-0503917 17-06066 709 4TH ST May 21 2017 12:32:42:323PM CRIMINAL MISCHIEF
17-0503913 2124 DUNCAN ST May 21 2017 12:02:22:047PM CIVIL STAND BY
17-0503912 117 OAKLAWN DR May 21 2017 11:55:49:730AM CIVIL STAND BY
17-0503907 2292 HAIRSTON AV May 21 2017 11:30:20:473AM HARASSMENT
17-0503904 899 ELSINGER BLVD May 21 2017 10:53:55:120AM SUSPICIOUS PERSON
17-0503903 3900 DAVE WARD DR May 21 2017 10:52:14:470AM CHECKING VEHICLE
17-0503901 17-06065 201 SKYLINE DR May 21 2017 10:39:10:660AM THEFT OF PROPERTY
17-0503900 5200 DONNELL RIDGE RD May 21 2017 10:24:54:823AM RECKLESS DRIVER
17-0503898 375 MONROE ST May 21 2017 10:12:48:237AM LOUD NOISE-MUSIC
17-0503897 May 21 2017 10:07:58:420AM RECOVERED PROPERTY
17-0503896 1105 CALLOWAY DR May 21 2017 10:01:58:667AM CIVIL STAND BY
17-0503895 1601 HOGAN LN May 21 2017 09:58:51:747AM ATTEMPT TO CONTACT
17-0503892 2901 TYLER ST May 21 2017 09:27:13:767AM PURSUIT DRILL
17-0503891 2905 PRINCE ST May 21 2017 08:55:33:183AM CHECKING PERSON
17-0503890 1012 E OAK ST May 21 2017 08:48:01:150AM CHECKING VEHICLE
17-0503889 401 2ND ST May 21 2017 08:44:23:837AM ATTEMPT TO CONTACT
17-0503884 502 OAK ST May 21 2017 08:12:01:277AM ALARM
17-0503881 3475 LONDON RD May 21 2017 07:39:08:873AM BARKING DOG COMPLAINT
17-0503879 1140 HARKRIDER ST May 21 2017 07:14:28:997AM ALARM
17-0503878 16 PAMELA LN May 21 2017 07:07:09:167AM SUSPICIOUS PERSON
17-0503877 600 5TH AV May 21 2017 06:18:26:400AM LOUD NOISE-MUSIC
17-0503874 2235 DESTIN DR May 21 2017 04:36:30:137AM ALARM
17-0503869 201 SKYLINE DR May 21 2017 02:11:37:820AM ABANDONED VEHICLE
17-0503866 17-06063 955 SOUTH GERMAN LN May 21 2017 01:08:52:270AM THEFT OF PROPERTY
17-0503865 3430 IRBY DR May 21 2017 01:05:41:743AM BURGLARY
17-0503864 1032 CLIFTON ST May 21 2017 01:00:58:183AM SUSPICIOUS PERSON
17-0503860 475 ROBINS ST May 21 2017 12:42:40:787AM SUSPICIOUS PERSON
17-0503859 2925 PRINCE ST May 21 2017 12:36:29:077AM ALARM
17-0503857 2525 BLANEY HILL RD May 21 2017 12:29:15:813AM SHOTS FIRED
17-0503852 401 2ND ST May 20 2017 11:54:45:657PM LOUD NOISE-MUSIC
17-0503850 44 WREN CIR May 20 2017 11:42:53:550PM SHOTS FIRED
17-0503849 17-06062 500 E OAK ST May 20 2017 11:38:53:707PM INTOXICATED DRIVER
17-0503848 1010 MAIN ST May 20 2017 11:35:35:140PM FIGHT
17-0503842 1706 INDEPENDENCE ST May 20 2017 11:06:47:343PM CHECK ON THE WELFARE
17-0503841 3950 RUPERT DR May 20 2017 10:49:36:387PM LOUD NOISE-MUSIC
17-0503839 1330 TORREYSON ST May 20 2017 10:41:01:427PM 911 HANGUP CALL
17-0503837 1330 CLARENCE DR May 20 2017 10:40:09:860PM LOUD NOISE-MUSIC
17-0503836 1701 DONAGHEY AV May 20 2017 10:33:51:230PM RUNAWAY
17-0503831 10 7TH AV May 20 2017 10:15:51:430PM LOUD NOISE-MUSIC
17-0503826 1155 SKYLINE DR May 20 2017 09:47:23:503PM ATTEMPT TO CONTACT
17-0503824 3030 DONNELL RIDGE RD May 20 2017 09:32:09:713PM LOUD NOISE-MUSIC
17-0503822 605 SALEM RD May 20 2017 09:14:00:413PM CRIMINAL MISCHIEF
17-0503821 1105 PRAIRIE ST May 20 2017 08:57:03:267PM ATTEMPT TO CONTACT
17-0503817 1325 MUSEUM RD May 20 2017 08:33:48:210PM SUSPICIOUS PACKAGE
17-0503815 309 OAK ST May 20 2017 08:08:10:373PM DISTURBANCE
17-0503814 17-06061 1835 TYLER ST May 20 2017 08:06:36:267PM BATTERY REPORT
17-0503813 1105 PRAIRIE ST May 20 2017 07:55:27:633PM ATTEMPT TO CONTACT
17-0503810 17-06060 3195 STONE RD May 20 2017 07:38:55:933PM ASSAULT
17-0503809 1220 E OAK ST May 20 2017 07:36:41:810PM SUSPICIOUS PERSON
17-0503807 1710 DONAGHEY AV May 20 2017 07:25:46:050PM ALARM
17-0503806 17-06059 900 S AMITY RD May 20 2017 07:20:25:007PM ACCIDENT - PROPERTY DAMAGE
17-0503805 1750 CENTENNIAL CLUB DR May 20 2017 07:13:47:517PM ALARM
17-0503804 1105 PRAIRIE ST May 20 2017 07:10:34:970PM ATTEMPT TO CONTACT
17-0503803 17-06058 1001 MCNUTT RD May 20 2017 06:56:17:507PM HARASSING COMMUNICATIONS
17-0503802 17-06057 2560 DONAGHEY AV May 20 2017 06:42:12:480PM ACCIDENT - PRIVATE PROPERTY
17-0503801 1200 OLD MORRILTON HWY May 20 2017 06:32:01:803PM DOMESTIC DISTURBANCE
17-0503800 17-06054 1710 S SALEM RD May 20 2017 06:18:03:617PM HARASSMENT
17-0503798 17-06052 1601 DAVIS ST May 20 2017 06:11:44:713PM HARASSMENT
17-0503797 2995 BILLY JACK DR May 20 2017 06:09:00:930PM THEFT OF PROPERTY
17-0503796 17-06053 2325 DAVE WARD DR May 20 2017 06:08:26:377PM ACCIDENT - PROPERTY DAMAGE
17-0503795 17-06055 500 SOUTH GERMAN LN May 20 2017 05:51:40:080PM MISDEMEANOR WARRANT SERVICE
17-0503794 1400 DAVIS ST May 20 2017 05:48:08:883PM CHECK ON THE WELFARE
17-0503792 17-06051 2400 SANDERS ST May 20 2017 05:35:19:713PM ACCIDENT - PROPERTY DAMAGE
17-0503791 2200 MILFORD DR May 20 2017 05:28:19:093PM SUSPICIOUS PERSON
17-0503790 1905 HOGAN LN May 20 2017 05:17:37:577PM ATTEMPT TO CONTACT
17-0503789 855 SALEM RD May 20 2017 05:07:59:443PM INTOXICATED DRIVER
17-0503788 1170 WOODSIDE DR May 20 2017 05:05:01:000PM SUSPICIOUS PERSON
17-0503787 200 AMITY RD May 20 2017 04:54:43:297PM SUSPICIOUS PERSON
17-0503786 17-06050 2730 DAVE WARD DR May 20 2017 04:54:03:937PM NO CONTACT ORDER VIOLATION
17-0503782 604 MERRIMAN ST May 20 2017 04:16:29:753PM ALARM
17-0503779 17-06048 1695 RACHEL DR May 20 2017 03:56:32:083PM THEFT OF PROPERTY
17-0503778 1325 OLD MORRILTON HWY May 20 2017 03:44:35:700PM INTOXICATED DRIVER
17-0503777 5135 PARK PLACE DR May 20 2017 03:34:46:160PM SUSPICIOUS PERSON
17-0503776 1200 E DAVE WARD DR May 20 2017 03:33:43:577PM RECKLESS DRIVER
17-0503775 3380 LONDON RD May 20 2017 03:25:26:390PM SUSPICIOUS PERSON
17-0503774 3900 DAVE WARD DR May 20 2017 03:25:18:673PM CHECK ON THE WELFARE
17-0503773 17-06047 1600 WESTLAKE DR May 20 2017 03:19:27:883PM ACCIDENT - PRIVATE PROPERTY
17-0503772 825 WOODARD DR May 20 2017 03:07:59:767PM TERRORISTIC THREATENING
17-0503771 1114 ASH ST May 20 2017 02:56:59:820PM CHECK ON THE WELFARE
17-0503770 2695 DAVE WARD DR May 20 2017 02:55:27:817PM SUSPICIOUS ACTIVITY
17-0503769 616 4TH AV May 20 2017 02:46:14:450PM FIGHT
17-0503768 1309 MAIN ST May 20 2017 02:42:23:827PM ALARM - BANK
17-0503765 17-06045 900 S AMITY RD May 20 2017 02:28:18:817PM ACCIDENT - PROPERTY DAMAGE
17-0503764 2765 BLANEY HILL RD May 20 2017 02:24:29:170PM ALARM
17-0503763 2280 SANDERS ST May 20 2017 02:22:32:440PM ALARM
17-0503762 17-06043 260 SALEM RD May 20 2017 02:07:44:093PM BATTERY REPORT
17-0503761 545 SKYLINE DR May 20 2017 02:06:17:070PM CITIZEN ASSIST
17-0503760 127 I40WB May 20 2017 02:03:04:210PM CHECK ON THE WELFARE
17-0503758 3501 COLLEGE AV May 20 2017 01:59:58:220PM CHECK ON THE WELFARE
17-0503757 17-06042 500 ELSINGER BLVD May 20 2017 01:50:58:490PM ACCIDENT - PRIVATE PROPERTY
17-0503756 9 THOUSAND OAKS CIR May 20 2017 01:41:17:853PM SUSPICIOUS PERSON
17-0503755 475 ROBINS ST May 20 2017 01:36:57:727PM CIVIL STAND BY
17-0503753 10 LOWER RIDGE RD May 20 2017 01:23:19:500PM DISTURBANCE
17-0503752 1240 OLD MORRILTON HWY May 20 2017 01:22:01:117PM PARKING VIOLATION
17-0503751 120 S HARKRIDER DR May 20 2017 01:20:42:660PM CHECKING VEHICLE
17-0503749 1120 EAST GERMAN LN May 20 2017 01:06:14:857PM STALLED VEHICLE
17-0503746 164 ROUND MOUNTAIN RD May 20 2017 12:37:09:243PM ACCIDENT - PROPERTY DAMAGE
17-0503745 855 SALEM RD May 20 2017 12:34:06:557PM SHOPLIFTING
17-0503744 17-06040 450 E DAVE WARD DR May 20 2017 12:31:12:357PM ACCIDENT - PERSONAL INJURY
17-0503741 2130 HARKRIDER ST May 20 2017 12:24:46:210PM RECKLESS DRIVER
17-0503740 4675 OLD MORRILTON HWY May 20 2017 12:17:12:860PM ATTEMPT TO CONTACT
17-0503738 17-06037 3501 NUTTERS CHAPEL RD May 20 2017 11:57:02:983AM ACCIDENT - PROPERTY DAMAGE
17-0503736 500 SOUTH GERMAN LN May 20 2017 11:56:55:063AM FELONY WARRANT SERVICE
17-0503734 2124 DUNCAN ST May 20 2017 11:46:59:757AM DISTURBANCE
17-0503733 17-06039 2124 DUNCAN ST May 20 2017 11:46:47:083AM DISTURBANCE
17-0503731 101 OAK ST May 20 2017 11:41:49:717AM ENDANGERING WELFARE OF MINOR
17-0503730 1330 MCKAY AV May 20 2017 11:30:32:797AM ABANDONED VEHICLE
17-0503729 17-06036 1212 HARRISON ST May 20 2017 11:14:29:310AM ACCIDENT - PRIVATE PROPERTY
17-0503728 17-06034 1105 SKYLINE DR May 20 2017 10:53:32:763AM ATTEMPT TO CONTACT
17-0503727 17-06035 1945 HENRY ST May 20 2017 10:52:09:597AM DOMESTIC DISTURBANCE
17-0503725 1485 OLD MORRILTON HWY May 20 2017 10:19:44:283AM CHECKING PERSON
17-0503724 2901 COLLEGE AV May 20 2017 10:03:22:413AM SUPPLEMENT REPORT CALL
17-0503723 815 E OAK ST May 20 2017 09:47:09:983AM ATTEMPT TO CONTACT
17-0503722 1001 MCNUTT RD May 20 2017 09:34:43:900AM FELONY WARRANT SERVICE
17-0503719 2360 QUATTLEBAUM CV May 20 2017 08:58:58:830AM ATTEMPT TO CONTACT
17-0503718 1685 JACKSON DR May 20 2017 08:16:00:267AM ALARM
17-0503716 170 S ASH ST May 20 2017 08:00:25:973AM CIVIL STAND BY
17-0503714 1500 MUSEUM RD May 20 2017 07:39:32:697AM ALARM
17-0503713 801 SOUTH GERMAN LN May 20 2017 07:01:45:543AM DOMESTIC DISTURBANCE
17-0503712 326 LOCUST AV May 20 2017 06:47:34:623AM REPOSSESSION
17-0503710 905 E OAK ST May 20 2017 04:58:24:843AM CHECK ON THE WELFARE
17-0503709 2925 PRINCE ST May 20 2017 04:25:52:230AM ALARM
17-0503707 17-06033 2012 ARKANSAS AV May 20 2017 04:12:20:360AM THEFT OF VEHICLE
17-0503706 2515 W MARTIN ST May 20 2017 04:02:23:273AM LOUD NOISE-MUSIC
17-0503704 1840 LEE AV May 20 2017 03:41:21:007AM PROWLER
17-0503703 2765 BLANEY HILL RD May 20 2017 03:13:52:743AM ALARM
17-0503701 766 HARKRIDER ST May 20 2017 02:36:33:987AM CHECKING VEHICLE
17-0503699 3900 DAVE WARD DR May 20 2017 02:14:34:300AM CRIMINAL MISCHIEF
17-0503698 3660 JEANNA DR May 20 2017 01:53:21:720AM BURGLARY
17-0503696 185 S ASH ST May 20 2017 01:35:23:530AM LOUD NOISE-MUSIC
17-0503693 145 AIKMAN PASS May 20 2017 12:52:08:513AM DISTURBANCE
17-0503691 1620 MIDDLE RD May 20 2017 12:34:16:963AM SUSPICIOUS ACTIVITY
17-0503690 207 WILLOW ST May 20 2017 12:29:07:150AM LOUD NOISE-MUSIC
Call Number Case Number Address Call Time Incident Type

General Contacts

POLICE HEADQUARTERS
1105 Prairie Street
Conway, AR 72032

Conway Police Department


  911 (EMERGENCIES ONLY)

  501.450.6120 (non-emergency)

ANONYMOUS TIPS
 Leave a message at 501.450.6135
 Text CONWAY and your tip to 274637 (CRIMES) Click for an Example

   

City of Conway

We, the members of the Conway Police Department, are committed to protecting and serving the citizens of Conway, Arkansas. That is our highest calling, as we pledge to join hands with others in carrying out our sworn duty to uphold the law.

Chief Jody Spradlin

Latest Tweets